Time,TemperatureF,DewpointF,PressureIn,WindDirection,WindDirectionDegrees,WindSpeedMPH,WindSpeedGustMPH,Humidity,HourlyPrecipIn,Conditions,Clouds,dailyrainin,SoftwareType,DateUTC
2013-06-01 00:00:00,53.2,46.2,30.26,NE,36,0.0,0.0,77,0.00,CLR,OVC,0.00,WeatherDisplay:10.37,2013-06-01 07:00:00,
2013-06-01 00:02:00,53.2,46.5,30.26,NE,36,0.0,0.0,78,0.00,CLR,OVC,0.00,WeatherDisplay:10.37,2013-06-01 07:02:00,
2013-06-01 00:03:00,53.1,46.4,30.26,NE,36,0.0,0.0,78,0.00,CLR,OVC,0.00,WeatherDisplay:10.37,2013-06-01 07:03:00,
2013-06-01 00:04:00,53.1,46.4,30.26,NE,36,0.0,0.0,78,0.00,CLR,OVC,0.00,WeatherDisplay:10.37,2013-06-01 07:04:00,
2013-06-01 00:05:00,53.1,46.4,30.26,NE,36,0.0,0.0,78,0.00,CLR,OVC,0.00,WeatherDisplay:10.37,2013-06-01 07:05:00,
2013-06-01 00:07:00,53.0,46.3,30.26,NE,36,0.0,0.0,78,0.00,CLR,OVC,0.00,WeatherDisplay:10.37,2013-06-01 07:07:00,
2013-06-01 00:08:00,52.9,46.2,30.26,NE,36,0.0,0.0,78,0.00,CLR,OVC,0.00,WeatherDisplay:10.37,2013-06-01 07:08:00,
2013-06-01 00:09:00,52.9,46.2,30.26,NE,36,0.0,0.0,78,0.00,CLR,OVC,0.00,WeatherDisplay:10.37,2013-06-01 07:09:00,
2013-06-01 00:10:00,52.9,46.2,30.26,NE,36,0.0,0.0,78,0.00,CLR,OVC,0.00,WeatherDisplay:10.37,2013-06-01 07:10:00,
2013-06-01 00:12:00,52.9,46.2,30.26,NE,36,0.0,0.0,78,0.00,CLR,OVC,0.00,WeatherDisplay:10.37,2013-06-01 07:12:00,
2013-06-01 00:13:00,52.8,46.1,30.26,NE,36,0.0,0.0,78,0.00,CLR,OVC,0.00,WeatherDisplay:10.37,2013-06-01 07:13:00,
2013-06-01 00:15:00,52.8,46.1,30.26,NE,36,0.0,0.0,78,0.00,CLR,OVC,0.00,WeatherDisplay:10.37,2013-06-01 07:15:00,
2013-06-01 00:16:00,52.7,46.4,30.26,NE,36,0.0,0.0,79,0.00,CLR,OVC,0.00,WeatherDisplay:10.37,2013-06-01 07:16:00,
2013-06-01 00:17:00,52.7,46.4,30.26,NE,36,0.0,0.0,79,0.00,CLR,OVC,0.00,WeatherDisplay:10.37,2013-06-01 07:17:00,
2013-06-01 00:19:00,52.6,46.3,30.26,NE,36,0.0,0.0,79,0.00,CLR,OVC,0.00,WeatherDisplay:10.37,2013-06-01 07:19:00,
2013-06-01 00:20:00,52.6,46.3,30.26,NE,36,0.0,0.0,79,0.00,CLR,OVC,0.00,WeatherDisplay:10.37,2013-06-01 07:20:00,
2013-06-01 00:21:00,52.6,46.6,30.26,NE,36,0.0,0.0,80,0.00,CLR,OVC,0.00,WeatherDisplay:10.37,2013-06-01 07:21:00,
2013-06-01 00:22:00,52.6,46.3,30.26,NE,36,0.0,0.0,79,0.00,CLR,OVC,0.00,WeatherDisplay:10.37,2013-06-01 07:22:00,
2013-06-01 00:25:00,52.5,46.5,30.26,NE,36,0.0,0.0,80,0.00,CLR,OVC,0.00,WeatherDisplay:10.37,2013-06-01 07:25:00,
2013-06-01 00:26:00,52.5,46.5,30.26,NE,36,0.0,0.0,80,0.00,CLR,OVC,0.00,WeatherDisplay:10.37,2013-06-01 07:26:00,
2013-06-01 00:27:00,52.5,46.5,30.26,NE,36,0.2,0.0,80,0.00,CLR,OVC,0.00,WeatherDisplay:10.37,2013-06-01 07:27:00,
2013-06-01 00:30:00,52.4,46.7,30.26,NE,36,0.0,0.0,81,0.00,CLR,OVC,0.00,WeatherDisplay:10.37,2013-06-01 07:30:00,
2013-06-01 00:31:00,52.4,46.7,30.26,NE,36,0.3,1.2,81,0.00,CLR,OVC,0.00,WeatherDisplay:10.37,2013-06-01 07:31:00,
2013-06-01 00:32:00,52.3,46.6,30.26,NE,36,0.0,1.2,81,0.00,CLR,OVC,0.00,WeatherDisplay:10.37,2013-06-01 07:32:00,
2013-06-01 00:33:00,52.3,46.3,30.26,NE,36,0.0,0.0,80,0.00,CLR,OVC,0.00,WeatherDisplay:10.37,2013-06-01 07:33:00,
2013-06-01 00:35:00,52.3,46.6,30.26,NE,36,0.0,0.0,81,0.00,CLR,OVC,0.00,WeatherDisplay:10.37,2013-06-01 07:35:00,
2013-06-01 00:36:00,52.2,46.5,30.26,NE,36,0.0,0.0,81,0.00,CLR,OVC,0.00,WeatherDisplay:10.37,2013-06-01 07:36:00,
2013-06-01 00:37:00,52.2,46.5,30.26,NE,36,0.0,0.0,81,0.00,CLR,OVC,0.00,WeatherDisplay:10.37,2013-06-01 07:37:00,
2013-06-01 00:38:00,52.2,46.5,30.26,NE,36,0.0,0.0,81,0.00,CLR,OVC,0.00,WeatherDisplay:10.37,2013-06-01 07:38:00,
2013-06-01 00:40:00,52.1,46.8,30.26,NE,36,0.0,0.0,82,0.00,CLR,OVC,0.00,WeatherDisplay:10.37,2013-06-01 07:40:00,
2013-06-01 00:42:00,52.1,46.8,30.26,NE,36,0.0,0.0,82,0.00,CLR,OVC,0.00,WeatherDisplay:10.37,2013-06-01 07:42:00,
2013-06-01 00:43:00,52.0,46.3,30.26,NE,36,0.1,1.2,81,0.00,CLR,OVC,0.00,WeatherDisplay:10.37,2013-06-01 07:43:00,
2013-06-01 00:45:00,52.0,46.3,30.26,NE,36,0.2,1.2,81,0.00,CLR,OVC,0.00,WeatherDisplay:10.37,2013-06-01 07:45:00,
2013-06-01 00:46:00,51.9,46.3,30.26,NE,36,0.0,1.2,81,0.00,CLR,OVC,0.00,WeatherDisplay:10.37,2013-06-01 07:46:00,
2013-06-01 00:47:00,51.9,46.3,30.26,NE,36,0.6,2.3,81,0.00,CLR,OVC,0.00,WeatherDisplay:10.37,2013-06-01 07:47:00,
2013-06-01 00:48:00,51.9,46.3,30.26,NE,36,0.0,0.0,81,0.00,CLR,OVC,0.00,WeatherDisplay:10.37,2013-06-01 07:48:00,
2013-06-01 00:49:00,51.9,46.3,30.26,NE,36,0.1,1.2,81,0.00,CLR,OVC,0.00,WeatherDisplay:10.37,2013-06-01 07:49:00,
2013-06-01 00:50:00,51.9,46.3,30.26,NE,36,0.0,2.0,81,0.00,CLR,OVC,0.00,WeatherDisplay:10.37,2013-06-01 07:50:00,
2013-06-01 00:51:00,51.9,46.3,30.26,NE,36,0.1,1.0,81,0.00,CLR,OVC,0.00,WeatherDisplay:10.37,2013-06-01 07:51:00,
2013-06-01 00:52:00,51.8,46.2,30.26,NE,36,1.0,2.3,81,0.00,CLR,OVC,0.00,WeatherDisplay:10.37,2013-06-01 07:52:00,
2013-06-01 00:53:00,51.9,46.3,30.26,NE,36,0.0,1.2,81,0.00,CLR,OVC,0.00,WeatherDisplay:10.37,2013-06-01 07:53:00,
2013-06-01 00:54:00,51.8,46.2,30.27,NE,36,0.3,2.0,81,0.00,CLR,OVC,0.00,WeatherDisplay:10.37,2013-06-01 07:54:00,
2013-06-01 00:55:00,51.9,46.3,30.26,NE,36,0.7,2.3,81,0.00,CLR,OVC,0.00,WeatherDisplay:10.37,2013-06-01 07:55:00,
2013-06-01 00:56:00,51.8,46.2,30.27,NE,36,0.0,2.3,81,0.00,CLR,OVC,0.00,WeatherDisplay:10.37,2013-06-01 07:56:00,
2013-06-01 00:57:00,51.8,46.2,30.27,NE,36,0.0,0.0,81,0.00,CLR,OVC,0.00,WeatherDisplay:10.37,2013-06-01 07:57:00,
2013-06-01 00:59:00,51.8,46.2,30.26,NE,36,0.0,0.0,81,0.00,CLR,OVC,0.00,WeatherDisplay:10.37,2013-06-01 07:59:00,
2013-06-01 01:00:00,51.8,46.5,30.26,NE,36,0.0,0.0,82,0.00,CLR,OVC,0.00,WeatherDisplay:10.37,2013-06-01 08:00:00,
2013-06-01 01:01:00,51.8,46.5,30.27,NE,36,0.0,0.0,82,0.00,CLR,OVC,0.00,WeatherDisplay:10.37,2013-06-01 08:01:00,
2013-06-01 01:02:00,51.8,46.5,30.26,NE,36,0.0,0.0,82,0.00,CLR,OVC,0.00,WeatherDisplay:10.37,2013-06-01 08:02:00,
2013-06-01 01:03:00,51.8,46.5,30.26,NE,36,0.0,0.0,82,0.00,CLR,OVC,0.00,WeatherDisplay:10.37,2013-06-01 08:03:00,
2013-06-01 01:05:00,51.8,46.8,30.26,NE,36,0.0,1.0,83,0.00,CLR,OVC,0.00,WeatherDisplay:10.37,2013-06-01 08:05:00,
2013-06-01 01:06:00,51.8,46.8,30.26,NE,36,0.0,1.2,83,0.00,CLR,OVC,0.00,WeatherDisplay:10.37,2013-06-01 08:06:00,
2013-06-01 01:07:00,51.8,46.8,30.26,NE,36,0.0,0.0,83,0.00,CLR,OVC,0.00,WeatherDisplay:10.37,2013-06-01 08:07:00,
2013-06-01 01:08:00,51.8,46.8,30.26,NE,36,0.0,0.0,83,0.00,CLR,OVC,0.00,WeatherDisplay:10.37,2013-06-01 08:08:00,
2013-06-01 01:10:00,51.8,46.8,30.26,NE,36,0.0,0.0,83,0.00,CLR,OVC,0.00,WeatherDisplay:10.37,2013-06-01 08:10:00,
2013-06-01 01:11:00,51.8,46.8,30.26,NE,36,0.6,3.0,83,0.00,CLR,OVC,0.00,WeatherDisplay:10.37,2013-06-01 08:11:00,
2013-06-01 01:12:00,51.8,46.8,30.26,NE,36,0.8,3.5,83,0.00,CLR,OVC,0.00,WeatherDisplay:10.37,2013-06-01 08:12:00,
2013-06-01 01:13:00,51.8,46.8,30.26,NE,36,0.2,2.3,83,0.00,CLR,OVC,0.00,WeatherDisplay:10.37,2013-06-01 08:13:00,
2013-06-01 01:15:00,51.8,46.8,30.26,NE,36,0.0,1.2,83,0.00,CLR,OVC,0.00,WeatherDisplay:10.37,2013-06-01 08:15:00,
2013-06-01 01:16:00,51.8,46.8,30.26,NE,36,0.4,1.2,83,0.00,CLR,OVC,0.00,WeatherDisplay:10.37,2013-06-01 08:16:00,
2013-06-01 01:17:00,51.8,46.8,30.26,NE,36,0.0,0.0,83,0.00,CLR,OVC,0.00,WeatherDisplay:10.37,2013-06-01 08:17:00,
2013-06-01 01:18:00,51.8,46.8,30.26,NE,36,0.0,0.0,83,0.00,CLR,OVC,0.00,WeatherDisplay:10.37,2013-06-01 08:18:00,
2013-06-01 01:19:00,51.7,46.7,30.26,NE,36,0.0,0.0,83,0.00,CLR,OVC,0.00,WeatherDisplay:10.37,2013-06-01 08:19:00,
2013-06-01 01:20:00,51.7,46.7,30.26,NE,36,0.0,0.0,83,0.00,CLR,OVC,0.00,WeatherDisplay:10.37,2013-06-01 08:20:00,
2013-06-01 01:21:00,51.7,46.7,30.26,NE,36,0.0,0.0,83,0.00,CLR,OVC,0.00,WeatherDisplay:10.37,2013-06-01 08:21:00,
2013-06-01 01:22:00,51.7,46.7,30.26,NE,36,0.0,0.0,83,0.00,CLR,OVC,0.00,WeatherDisplay:10.37,2013-06-01 08:22:00,
2013-06-01 01:24:00,51.6,46.6,30.26,NE,36,0.0,0.0,83,0.00,CLR,OVC,0.00,WeatherDisplay:10.37,2013-06-01 08:24:00,
2013-06-01 01:25:00,51.6,46.9,30.26,NE,36,0.1,0.0,84,0.00,CLR,OVC,0.00,WeatherDisplay:10.37,2013-06-01 08:25:00,
2013-06-01 01:26:00,51.5,46.8,30.26,NE,36,0.0,0.0,84,0.00,CLR,OVC,0.00,WeatherDisplay:10.37,2013-06-01 08:26:00,
2013-06-01 01:27:00,51.5,46.8,30.26,NE,36,0.0,0.0,84,0.00,CLR,OVC,0.00,WeatherDisplay:10.37,2013-06-01 08:27:00,
2013-06-01 01:29:00,51.4,46.7,30.26,NE,36,0.0,0.0,84,0.00,CLR,OVC,0.00,WeatherDisplay:10.37,2013-06-01 08:29:00,
2013-06-01 01:30:00,51.4,46.7,30.26,NE,36,0.0,1.0,84,0.00,CLR,OVC,0.00,WeatherDisplay:10.37,2013-06-01 08:30:00,
2013-06-01 01:31:00,51.4,46.7,30.26,NE,36,0.1,0.0,84,0.00,CLR,OVC,0.00,WeatherDisplay:10.37,2013-06-01 08:31:00,
2013-06-01 01:32:00,51.3,46.6,30.26,NE,36,0.0,1.2,84,0.00,CLR,OVC,0.00,WeatherDisplay:10.37,2013-06-01 08:32:00,
2013-06-01 01:34:00,51.3,46.6,30.26,NE,36,0.0,0.0,84,0.00,CLR,OVC,0.00,WeatherDisplay:10.37,2013-06-01 08:34:00,
2013-06-01 01:35:00,51.3,46.6,30.26,NE,36,0.0,1.0,84,0.00,CLR,OVC,0.00,WeatherDisplay:10.37,2013-06-01 08:35:00,
2013-06-01 01:36:00,51.2,46.5,30.26,NE,36,0.0,0.0,84,0.00,CLR,OVC,0.00,WeatherDisplay:10.37,2013-06-01 08:36:00,
2013-06-01 01:38:00,51.2,46.5,30.26,NE,36,0.0,0.0,84,0.00,CLR,OVC,0.00,WeatherDisplay:10.37,2013-06-01 08:38:00,
2013-06-01 01:39:00,51.1,46.7,30.26,NE,36,0.0,0.0,85,0.00,CLR,OVC,0.00,WeatherDisplay:10.37,2013-06-01 08:39:00,
2013-06-01 01:40:00,51.1,46.7,30.26,NE,36,0.0,0.0,85,0.00,CLR,OVC,0.00,WeatherDisplay:10.37,2013-06-01 08:40:00,
2013-06-01 01:42:00,51.0,46.6,30.26,NE,36,0.0,0.0,85,0.00,CLR,OVC,0.00,WeatherDisplay:10.37,2013-06-01 08:42:00,
2013-06-01 01:44:00,51.0,46.6,30.26,NE,36,0.0,0.0,85,0.00,CLR,OVC,0.00,WeatherDisplay:10.37,2013-06-01 08:44:00,
2013-06-01 01:45:00,51.0,46.6,30.26,NE,36,0.4,1.2,85,0.00,CLR,OVC,0.00,WeatherDisplay:10.37,2013-06-01 08:45:00,
2013-06-01 01:47:00,50.9,46.6,30.26,NE,36,0.3,0.0,85,0.00,CLR,OVC,0.00,WeatherDisplay:10.37,2013-06-01 08:47:00,
2013-06-01 01:49:00,50.9,46.6,30.26,NE,36,0.0,1.2,85,0.00,CLR,OVC,0.00,WeatherDisplay:10.37,2013-06-01 08:49:00,
2013-06-01 01:50:00,50.9,46.6,30.26,NE,36,0.0,1.2,85,0.00,CLR,OVC,0.00,WeatherDisplay:10.37,2013-06-01 08:50:00,
2013-06-01 01:51:00,50.9,46.6,30.25,NE,36,0.0,0.0,85,0.00,CLR,OVC,0.00,WeatherDisplay:10.37,2013-06-01 08:51:00,
2013-06-01 01:53:00,50.9,46.6,30.26,NE,36,0.0,1.2,85,0.00,CLR,OVC,0.00,WeatherDisplay:10.37,2013-06-01 08:53:00,
2013-06-01 01:54:00,50.9,46.6,30.25,NE,36,0.4,2.3,85,0.00,CLR,OVC,0.00,WeatherDisplay:10.37,2013-06-01 08:54:00,
2013-06-01 01:55:00,50.9,46.6,30.25,NE,36,0.3,2.3,85,0.00,CLR,OVC,0.00,WeatherDisplay:10.37,2013-06-01 08:55:00,
2013-06-01 01:56:00,51.0,46.6,30.25,NE,36,0.0,0.0,85,0.00,CLR,OVC,0.00,WeatherDisplay:10.37,2013-06-01 08:56:00,
2013-06-01 01:58:00,51.0,46.6,30.25,NE,36,0.0,1.2,85,0.00,CLR,OVC,0.00,WeatherDisplay:10.37,2013-06-01 08:58:00,
2013-06-01 01:59:00,51.0,46.6,30.25,NE,36,0.0,0.0,85,0.00,CLR,OVC,0.00,WeatherDisplay:10.37,2013-06-01 08:59:00,
2013-06-01 02:00:00,51.0,46.6,30.25,NE,36,0.0,0.0,85,0.00,CLR,OVC,0.00,WeatherDisplay:10.37,2013-06-01 09:00:00,
2013-06-01 02:01:00,51.0,46.6,30.25,NE,36,0.0,0.0,85,0.00,CLR,OVC,0.00,WeatherDisplay:10.37,2013-06-01 09:01:00,
2013-06-01 02:02:00,51.0,46.6,30.25,NE,36,0.0,0.0,85,0.00,CLR,OVC,0.00,WeatherDisplay:10.37,2013-06-01 09:02:00,
2013-06-01 02:03:00,51.0,47.0,30.25,NE,36,0.0,0.0,86,0.00,CLR,OVC,0.00,WeatherDisplay:10.37,2013-06-01 09:03:00,
2013-06-01 02:05:00,51.0,47.0,30.25,NE,36,0.1,3.5,86,0.00,CLR,OVC,0.00,WeatherDisplay:10.37,2013-06-01 09:05:00,
2013-06-01 02:06:00,51.0,47.0,30.25,NE,36,0.0,1.2,86,0.00,CLR,OVC,0.00,WeatherDisplay:10.37,2013-06-01 09:06:00,
2013-06-01 02:07:00,51.0,47.0,30.25,NE,36,0.3,1.2,86,0.00,CLR,OVC,0.00,WeatherDisplay:10.37,2013-06-01 09:07:00,
2013-06-01 02:08:00,51.0,47.0,30.25,NE,36,0.4,1.2,86,0.00,CLR,OVC,0.00,WeatherDisplay:10.37,2013-06-01 09:08:00,
2013-06-01 02:10:00,51.0,47.0,30.25,NE,36,0.0,0.0,86,0.00,CLR,OVC,0.00,WeatherDisplay:10.37,2013-06-01 09:10:00,
2013-06-01 02:11:00,51.0,47.0,30.25,NE,36,0.1,1.2,86,0.00,CLR,OVC,0.00,WeatherDisplay:10.37,2013-06-01 09:11:00,
2013-06-01 02:12:00,51.0,47.0,30.25,NE,36,0.8,2.3,86,0.00,CLR,OVC,0.00,WeatherDisplay:10.37,2013-06-01 09:12:00,
2013-06-01 02:13:00,51.0,47.0,30.25,NE,36,0.0,1.2,86,0.00,CLR,OVC,0.00,WeatherDisplay:10.37,2013-06-01 09:13:00,
2013-06-01 02:15:00,51.0,47.0,30.25,NE,36,0.2,2.3,86,0.00,CLR,OVC,0.00,WeatherDisplay:10.37,2013-06-01 09:15:00,
2013-06-01 02:16:00,51.0,47.0,30.25,NE,36,0.2,2.3,86,0.00,CLR,OVC,0.00,WeatherDisplay:10.37,2013-06-01 09:16:00,
2013-06-01 02:17:00,51.0,47.0,30.25,NE,36,0.0,0.0,86,0.00,CLR,OVC,0.00,WeatherDisplay:10.37,2013-06-01 09:17:00,
2013-06-01 02:18:00,51.0,47.0,30.25,NE,36,0.0,1.2,86,0.00,CLR,OVC,0.00,WeatherDisplay:10.37,2013-06-01 09:18:00,
2013-06-01 02:20:00,51.0,47.0,30.25,NE,36,0.0,0.0,86,0.00,CLR,OVC,0.00,WeatherDisplay:10.37,2013-06-01 09:20:00,
2013-06-01 02:21:00,51.0,47.0,30.25,NE,36,0.0,0.0,86,0.00,CLR,OVC,0.00,WeatherDisplay:10.37,2013-06-01 09:21:00,
2013-06-01 02:22:00,51.0,47.0,30.25,NE,36,0.7,2.3,86,0.00,CLR,OVC,0.00,WeatherDisplay:10.37,2013-06-01 09:22:00,
2013-06-01 02:24:00,51.0,47.0,30.25,NE,36,0.0,0.0,86,0.00,CLR,OVC,0.00,WeatherDisplay:10.37,2013-06-01 09:24:00,
2013-06-01 02:25:00,51.0,47.0,30.25,NE,36,0.0,0.0,86,0.00,CLR,OVC,0.00,WeatherDisplay:10.37,2013-06-01 09:25:00,
2013-06-01 02:27:00,51.0,47.0,30.25,NE,36,0.0,0.0,86,0.00,CLR,OVC,0.00,WeatherDisplay:10.37,2013-06-01 09:27:00,
2013-06-01 02:28:00,51.0,47.3,30.25,NE,36,0.0,0.0,87,0.00,CLR,OVC,0.00,WeatherDisplay:10.37,2013-06-01 09:28:00,
2013-06-01 02:29:00,51.0,47.3,30.25,NE,36,0.0,0.0,87,0.00,CLR,OVC,0.00,WeatherDisplay:10.37,2013-06-01 09:29:00,
2013-06-01 02:30:00,51.0,47.3,30.25,NE,36,0.0,0.0,87,0.00,CLR,OVC,0.00,WeatherDisplay:10.37,2013-06-01 09:30:00,
2013-06-01 02:32:00,51.0,47.3,30.25,NE,36,0.0,0.0,87,0.00,CLR,OVC,0.00,WeatherDisplay:10.37,2013-06-01 09:32:00,
2013-06-01 02:33:00,51.0,47.3,30.25,NE,36,0.0,0.0,87,0.00,CLR,OVC,0.00,WeatherDisplay:10.37,2013-06-01 09:33:00,
2013-06-01 02:35:00,50.9,47.2,30.25,NE,36,0.1,1.2,87,0.00,CLR,OVC,0.00,WeatherDisplay:10.37,2013-06-01 09:35:00,
2013-06-01 02:37:00,50.9,47.2,30.25,NE,36,0.0,0.0,87,0.00,CLR,OVC,0.00,WeatherDisplay:10.37,2013-06-01 09:37:00,
2013-06-01 02:38:00,50.8,47.1,30.25,NE,36,0.0,1.2,87,0.00,CLR,OVC,0.00,WeatherDisplay:10.37,2013-06-01 09:38:00,
2013-06-01 02:40:00,50.8,47.4,30.25,NE,36,0.0,0.0,88,0.00,CLR,OVC,0.00,WeatherDisplay:10.37,2013-06-01 09:40:00,
2013-06-01 02:41:00,50.8,47.4,30.25,NE,36,0.0,0.0,88,0.00,CLR,OVC,0.00,WeatherDisplay:10.37,2013-06-01 09:41:00,
2013-06-01 02:42:00,50.7,47.3,30.25,NE,36,0.0,0.0,88,0.00,CLR,OVC,0.00,WeatherDisplay:10.37,2013-06-01 09:42:00,
2013-06-01 02:43:00,50.7,47.3,30.25,NE,36,0.0,0.0,88,0.00,CLR,OVC,0.00,WeatherDisplay:10.37,2013-06-01 09:43:00,
2013-06-01 02:46:00,50.6,47.2,30.25,NE,36,0.0,0.0,88,0.00,CLR,OVC,0.00,WeatherDisplay:10.37,2013-06-01 09:46:00,
2013-06-01 02:47:00,50.6,47.2,30.25,NE,36,0.0,0.0,88,0.00,CLR,OVC,0.00,WeatherDisplay:10.37,2013-06-01 09:47:00,
2013-06-01 02:48:00,50.5,47.1,30.25,NE,36,0.1,1.2,88,0.00,CLR,OVC,0.00,WeatherDisplay:10.37,2013-06-01 09:48:00,
2013-06-01 02:49:00,50.5,47.1,30.25,NE,36,0.0,1.2,88,0.00,CLR,OVC,0.00,WeatherDisplay:10.37,2013-06-01 09:49:00,
2013-06-01 02:51:00,50.4,47.3,30.25,NE,36,0.0,0.0,89,0.00,CLR,OVC,0.00,WeatherDisplay:10.37,2013-06-01 09:51:00,
2013-06-01 02:52:00,50.4,47.3,30.25,NE,36,0.0,0.0,89,0.00,CLR,OVC,0.00,WeatherDisplay:10.37,2013-06-01 09:52:00,
2013-06-01 02:53:00,50.4,47.3,30.25,NE,36,0.0,0.0,89,0.00,CLR,OVC,0.00,WeatherDisplay:10.37,2013-06-01 09:53:00,
2013-06-01 02:55:00,50.4,47.3,30.25,NE,36,0.0,0.0,89,0.00,CLR,OVC,0.00,WeatherDisplay:10.37,2013-06-01 09:55:00,
2013-06-01 02:57:00,50.4,47.3,30.25,NE,36,0.0,0.0,89,0.00,CLR,OVC,0.00,WeatherDisplay:10.37,2013-06-01 09:57:00,
2013-06-01 02:58:00,50.4,47.3,30.25,NE,36,0.0,0.0,89,0.00,CLR,OVC,0.00,WeatherDisplay:10.37,2013-06-01 09:58:00,
2013-06-01 02:59:00,50.4,47.3,30.25,NE,36,0.0,0.0,89,0.00,CLR,OVC,0.00,WeatherDisplay:10.37,2013-06-01 09:59:00,
2013-06-01 03:00:00,50.4,47.3,30.25,NE,36,0.0,0.0,89,0.00,CLR,OVC,0.00,WeatherDisplay:10.37,2013-06-01 10:00:00,
2013-06-01 03:02:00,50.4,47.3,30.25,NE,36,0.0,0.0,89,0.00,CLR,OVC,0.00,WeatherDisplay:10.37,2013-06-01 10:02:00,
2013-06-01 03:04:00,50.4,47.3,30.25,NE,36,0.0,0.0,89,0.00,CLR,OVC,0.00,WeatherDisplay:10.37,2013-06-01 10:04:00,
2013-06-01 03:05:00,50.4,47.0,30.25,NE,36,0.0,0.0,88,0.00,CLR,OVC,0.00,WeatherDisplay:10.37,2013-06-01 10:05:00,
2013-06-01 03:07:00,50.5,47.1,30.25,NE,36,0.0,0.0,88,0.00,CLR,OVC,0.00,WeatherDisplay:10.37,2013-06-01 10:07:00,
2013-06-01 03:08:00,50.5,47.1,30.24,NE,36,0.0,0.0,88,0.00,CLR,OVC,0.00,WeatherDisplay:10.37,2013-06-01 10:08:00,
2013-06-01 03:09:00,50.5,47.1,30.25,NE,36,0.0,0.0,88,0.00,CLR,OVC,0.00,WeatherDisplay:10.37,2013-06-01 10:09:00,
2013-06-01 03:10:00,50.5,47.1,30.25,NE,36,0.0,0.0,88,0.00,CLR,OVC,0.00,WeatherDisplay:10.37,2013-06-01 10:10:00,
2013-06-01 03:12:00,50.6,47.2,30.25,NE,36,0.0,0.0,88,0.00,CLR,OVC,0.00,WeatherDisplay:10.37,2013-06-01 10:12:00,
2013-06-01 03:13:00,50.6,47.2,30.24,NE,36,0.1,1.2,88,0.00,CLR,OVC,0.00,WeatherDisplay:10.37,2013-06-01 10:13:00,
2013-06-01 03:14:00,50.6,47.2,30.24,NE,36,0.0,1.2,88,0.00,CLR,OVC,0.00,WeatherDisplay:10.37,2013-06-01 10:14:00,
2013-06-01 03:15:00,50.6,47.2,30.24,NE,36,0.0,0.0,88,0.00,CLR,OVC,0.00,WeatherDisplay:10.37,2013-06-01 10:15:00,
2013-06-01 03:17:00,50.6,47.2,30.24,NE,36,0.1,1.2,88,0.00,CLR,OVC,0.00,WeatherDisplay:10.37,2013-06-01 10:17:00,
2013-06-01 03:19:00,50.7,47.3,30.24,NE,36,0.0,0.0,88,0.00,CLR,OVC,0.00,WeatherDisplay:10.37,2013-06-01 10:19:00,
2013-06-01 03:20:00,50.7,47.3,30.24,NE,36,0.0,0.0,88,0.00,CLR,OVC,0.00,WeatherDisplay:10.37,2013-06-01 10:20:00,
2013-06-01 03:21:00,50.7,47.3,30.24,NE,36,0.0,0.0,88,0.00,CLR,OVC,0.00,WeatherDisplay:10.37,2013-06-01 10:21:00,
2013-06-01 03:23:00,50.7,47.3,30.24,NE,36,0.0,0.0,88,0.00,CLR,OVC,0.00,WeatherDisplay:10.37,2013-06-01 10:23:00,
2013-06-01 03:24:00,50.8,47.4,30.24,NE,36,0.0,0.0,88,0.00,CLR,OVC,0.00,WeatherDisplay:10.37,2013-06-01 10:24:00,
2013-06-01 03:25:00,50.8,47.4,30.24,NE,36,0.0,0.0,88,0.00,CLR,OVC,0.00,WeatherDisplay:10.37,2013-06-01 10:25:00,
2013-06-01 03:26:00,50.8,47.4,30.24,NE,36,0.0,0.0,88,0.00,CLR,OVC,0.00,WeatherDisplay:10.37,2013-06-01 10:26:00,
2013-06-01 03:28:00,50.8,47.4,30.24,NE,36,0.0,0.0,88,0.00,CLR,OVC,0.00,WeatherDisplay:10.37,2013-06-01 10:28:00,
2013-06-01 03:30:00,50.8,47.4,30.24,NE,36,0.0,0.0,88,0.00,CLR,OVC,0.00,WeatherDisplay:10.37,2013-06-01 10:30:00,
2013-06-01 03:32:00,50.8,47.4,30.24,NE,36,0.0,0.0,88,0.00,CLR,OVC,0.00,WeatherDisplay:10.37,2013-06-01 10:32:00,
2013-06-01 03:33:00,50.8,47.4,30.24,NE,36,0.4,1.2,88,0.00,CLR,OVC,0.00,WeatherDisplay:10.37,2013-06-01 10:33:00,
2013-06-01 03:35:00,50.8,47.4,30.24,NE,36,0.0,2.3,88,0.00,CLR,OVC,0.00,WeatherDisplay:10.37,2013-06-01 10:35:00,
2013-06-01 03:37:00,50.8,47.4,30.24,NE,36,0.0,0.0,88,0.00,CLR,OVC,0.00,WeatherDisplay:10.37,2013-06-01 10:37:00,
2013-06-01 03:39:00,50.8,47.4,30.24,NE,36,0.0,0.0,88,0.00,CLR,OVC,0.00,WeatherDisplay:10.37,2013-06-01 10:39:00,
2013-06-01 03:40:00,50.8,47.4,30.24,NE,36,0.0,0.0,88,0.00,CLR,OVC,0.00,WeatherDisplay:10.37,2013-06-01 10:40:00,
2013-06-01 03:43:00,50.8,47.7,30.24,NE,36,0.0,0.0,89,0.00,CLR,OVC,0.00,WeatherDisplay:10.37,2013-06-01 10:43:00,
2013-06-01 03:44:00,50.8,47.7,30.24,NE,36,0.0,0.0,89,0.00,CLR,OVC,0.00,WeatherDisplay:10.37,2013-06-01 10:44:00,
2013-06-01 03:45:00,50.9,47.8,30.24,NE,36,0.0,0.0,89,0.00,CLR,OVC,0.00,WeatherDisplay:10.37,2013-06-01 10:45:00,
2013-06-01 03:48:00,50.8,47.7,30.24,NE,36,0.0,0.0,89,0.00,CLR,OVC,0.00,WeatherDisplay:10.37,2013-06-01 10:48:00,
2013-06-01 03:49:00,50.8,47.7,30.24,NE,36,0.0,0.0,89,0.00,CLR,OVC,0.00,WeatherDisplay:10.37,2013-06-01 10:49:00,
2013-06-01 03:50:00,50.8,47.7,30.24,NE,36,0.0,0.0,89,0.00,CLR,OVC,0.00,WeatherDisplay:10.37,2013-06-01 10:50:00,
2013-06-01 03:51:00,50.8,47.7,30.24,NE,36,0.0,0.0,89,0.00,CLR,OVC,0.00,WeatherDisplay:10.37,2013-06-01 10:51:00,
2013-06-01 03:53:00,50.8,47.7,30.24,NE,36,0.0,0.0,89,0.00,CLR,OVC,0.00,WeatherDisplay:10.37,2013-06-01 10:53:00,
2013-06-01 03:54:00,50.8,47.7,30.24,NE,36,0.0,0.0,89,0.00,CLR,OVC,0.00,WeatherDisplay:10.37,2013-06-01 10:54:00,
2013-06-01 03:55:00,50.8,47.7,30.24,NE,36,0.0,0.0,89,0.00,CLR,OVC,0.00,WeatherDisplay:10.37,2013-06-01 10:55:00,
2013-06-01 03:56:00,50.8,47.7,30.24,NE,36,0.0,0.0,89,0.00,CLR,OVC,0.00,WeatherDisplay:10.37,2013-06-01 10:56:00,
2013-06-01 03:58:00,50.8,47.7,30.24,NE,36,0.0,0.0,89,0.00,CLR,OVC,0.00,WeatherDisplay:10.37,2013-06-01 10:58:00,
2013-06-01 04:00:00,50.8,47.7,30.24,NE,36,0.0,0.0,89,0.00,CLR,OVC,0.00,WeatherDisplay:10.37,2013-06-01 11:00:00,
2013-06-01 04:01:00,50.8,47.7,30.24,NE,36,0.0,0.0,89,0.00,CLR,OVC,0.00,WeatherDisplay:10.37,2013-06-01 11:01:00,
2013-06-01 04:03:00,50.8,47.7,30.24,NE,36,0.0,0.0,89,0.00,CLR,OVC,0.00,WeatherDisplay:10.37,2013-06-01 11:03:00,
2013-06-01 04:05:00,50.8,47.7,30.24,NE,36,0.0,0.0,89,0.00,CLR,OVC,0.00,WeatherDisplay:10.37,2013-06-01 11:05:00,
2013-06-01 04:06:00,50.8,47.7,30.24,NE,36,0.0,0.0,89,0.00,CLR,OVC,0.00,WeatherDisplay:10.37,2013-06-01 11:06:00,
2013-06-01 04:09:00,50.7,47.6,30.24,NE,36,0.0,0.0,89,0.00,CLR,OVC,0.00,WeatherDisplay:10.37,2013-06-01 11:09:00,
2013-06-01 04:10:00,50.7,47.6,30.24,NE,36,0.0,0.0,89,0.00,CLR,OVC,0.00,WeatherDisplay:10.37,2013-06-01 11:10:00,
2013-06-01 04:11:00,50.7,47.6,30.24,NE,36,0.0,0.0,89,0.00,CLR,OVC,0.00,WeatherDisplay:10.37,2013-06-01 11:11:00,
2013-06-01 04:12:00,50.7,47.6,30.24,NE,36,0.0,0.0,89,0.00,CLR,OVC,0.00,WeatherDisplay:10.37,2013-06-01 11:12:00,
2013-06-01 04:14:00,50.7,47.6,30.24,NE,36,0.0,0.0,89,0.00,CLR,OVC,0.00,WeatherDisplay:10.37,2013-06-01 11:14:00,
2013-06-01 04:16:00,50.7,47.6,30.24,NE,36,0.0,0.0,89,0.00,CLR,OVC,0.00,WeatherDisplay:10.37,2013-06-01 11:16:00,
2013-06-01 04:17:00,50.7,47.6,30.24,NE,36,0.0,0.0,89,0.00,CLR,OVC,0.00,WeatherDisplay:10.37,2013-06-01 11:17:00,
2013-06-01 04:19:00,50.7,47.6,30.24,NE,36,0.0,0.0,89,0.00,CLR,OVC,0.00,WeatherDisplay:10.37,2013-06-01 11:19:00,
2013-06-01 04:21:00,50.7,47.6,30.24,NE,36,0.0,0.0,89,0.00,CLR,OVC,0.00,WeatherDisplay:10.37,2013-06-01 11:21:00,
2013-06-01 04:22:00,50.6,47.5,30.24,NE,36,0.0,0.0,89,0.00,CLR,OVC,0.00,WeatherDisplay:10.37,2013-06-01 11:22:00,
2013-06-01 04:25:00,50.6,47.2,30.24,NE,36,0.0,0.0,88,0.00,CLR,OVC,0.00,WeatherDisplay:10.37,2013-06-01 11:25:00,
2013-06-01 04:26:00,50.6,47.2,30.24,NE,36,0.0,0.0,88,0.00,CLR,OVC,0.00,WeatherDisplay:10.37,2013-06-01 11:26:00,
2013-06-01 04:27:00,50.6,47.2,30.24,NE,36,0.0,0.0,88,0.00,CLR,OVC,0.00,WeatherDisplay:10.37,2013-06-01 11:27:00,
2013-06-01 04:28:00,50.5,47.1,30.24,NE,36,0.0,0.0,88,0.00,CLR,OVC,0.00,WeatherDisplay:10.37,2013-06-01 11:28:00,
2013-06-01 04:30:00,50.5,47.1,30.24,NE,36,0.0,0.0,88,0.00,CLR,OVC,0.00,WeatherDisplay:10.37,2013-06-01 11:30:00,
2013-06-01 04:32:00,50.5,47.1,30.24,NE,36,0.0,0.0,88,0.00,CLR,OVC,0.00,WeatherDisplay:10.37,2013-06-01 11:32:00,
2013-06-01 04:33:00,50.5,47.1,30.24,NE,36,0.0,0.0,88,0.00,CLR,OVC,0.00,WeatherDisplay:10.37,2013-06-01 11:33:00,
2013-06-01 04:35:00,50.5,47.1,30.23,NE,36,0.0,0.0,88,0.00,CLR,OVC,0.00,WeatherDisplay:10.37,2013-06-01 11:35:00,
2013-06-01 04:37:00,50.4,47.0,30.23,NE,36,0.0,0.0,88,0.00,CLR,OVC,0.00,WeatherDisplay:10.37,2013-06-01 11:37:00,
2013-06-01 04:38:00,50.4,47.0,30.23,NE,36,0.0,0.0,88,0.00,CLR,OVC,0.00,WeatherDisplay:10.37,2013-06-01 11:38:00,
2013-06-01 04:39:00,50.4,47.3,30.23,NE,36,0.0,0.0,89,0.00,CLR,OVC,0.00,WeatherDisplay:10.37,2013-06-01 11:39:00,
2013-06-01 04:40:00,50.4,47.3,30.23,NE,36,0.0,0.0,89,0.00,CLR,OVC,0.00,WeatherDisplay:10.37,2013-06-01 11:40:00,
2013-06-01 04:43:00,50.3,47.2,30.23,NE,36,0.0,0.0,89,0.00,CLR,OVC,0.00,WeatherDisplay:10.37,2013-06-01 11:43:00,
2013-06-01 04:44:00,50.3,46.9,30.23,NE,36,0.0,0.0,88,0.00,CLR,OVC,0.00,WeatherDisplay:10.37,2013-06-01 11:44:00,
2013-06-01 04:46:00,50.2,46.8,30.23,NE,36,0.0,0.0,88,0.00,CLR,OVC,0.00,WeatherDisplay:10.37,2013-06-01 11:46:00,
2013-06-01 04:48:00,50.2,47.1,30.23,NE,36,0.0,0.0,89,0.00,CLR,OVC,0.00,WeatherDisplay:10.37,2013-06-01 11:48:00,
2013-06-01 04:49:00,50.1,47.0,30.23,NE,36,0.0,0.0,89,0.00,CLR,OVC,0.00,WeatherDisplay:10.37,2013-06-01 11:49:00,
2013-06-01 04:51:00,50.1,47.0,30.23,NE,36,0.0,0.0,89,0.00,CLR,OVC,0.00,WeatherDisplay:10.37,2013-06-01 11:51:00,
2013-06-01 04:53:00,50.0,47.2,30.23,NE,36,0.0,0.0,90,0.00,CLR,OVC,0.00,WeatherDisplay:10.37,2013-06-01 11:53:00,
2013-06-01 04:54:00,50.0,47.5,30.23,NE,36,0.0,0.0,91,0.00,CLR,OVC,0.00,WeatherDisplay:10.37,2013-06-01 11:54:00,
2013-06-01 04:55:00,49.9,47.4,30.23,NE,36,0.0,0.0,91,0.00,CLR,OVC,0.00,WeatherDisplay:10.37,2013-06-01 11:55:00,
2013-06-01 04:56:00,49.8,47.3,30.23,NE,36,0.0,0.0,91,0.00,CLR,OVC,0.00,WeatherDisplay:10.37,2013-06-01 11:56:00,
2013-06-01 04:58:00,49.7,47.5,30.23,NE,36,0.0,0.0,92,0.00,CLR,OVC,0.00,WeatherDisplay:10.37,2013-06-01 11:58:00,
2013-06-01 04:59:00,49.6,47.4,30.23,NE,36,0.0,0.0,92,0.00,CLR,OVC,0.00,WeatherDisplay:10.37,2013-06-01 11:59:00,
2013-06-01 05:00:00,49.6,47.4,30.23,NE,36,0.0,0.0,92,0.00,CLR,OVC,0.00,WeatherDisplay:10.37,2013-06-01 12:00:00,
2013-06-01 05:01:00,49.5,47.3,30.23,NE,36,0.0,0.0,92,0.00,CLR,OVC,0.00,WeatherDisplay:10.37,2013-06-01 12:01:00,
2013-06-01 05:03:00,49.4,47.5,30.23,NE,36,0.0,0.0,93,0.00,CLR,OVC,0.00,WeatherDisplay:10.37,2013-06-01 12:03:00,
2013-06-01 05:04:00,49.4,47.5,30.23,NE,36,0.0,0.0,93,0.00,CLR,OVC,0.00,WeatherDisplay:10.37,2013-06-01 12:04:00,
2013-06-01 05:05:00,49.4,47.5,30.23,NE,36,0.0,0.0,93,0.00,CLR,OVC,0.00,WeatherDisplay:10.37,2013-06-01 12:05:00,
2013-06-01 05:06:00,49.3,47.4,30.23,NE,36,0.0,0.0,93,0.00,CLR,OVC,0.00,WeatherDisplay:10.37,2013-06-01 12:06:00,
2013-06-01 05:08:00,49.3,47.4,30.23,NE,36,0.0,0.0,93,0.00,CLR,OVC,0.00,WeatherDisplay:10.37,2013-06-01 12:08:00,
2013-06-01 05:09:00,49.3,47.4,30.23,NE,36,0.0,0.0,93,0.00,CLR,OVC,0.00,WeatherDisplay:10.37,2013-06-01 12:09:00,
2013-06-01 05:11:00,49.3,47.6,30.23,NE,36,0.0,0.0,94,0.00,CLR,OVC,0.00,WeatherDisplay:10.37,2013-06-01 12:11:00,
2013-06-01 05:12:00,49.2,47.5,30.23,NE,36,0.0,0.0,94,0.00,CLR,OVC,0.00,WeatherDisplay:10.37,2013-06-01 12:12:00,
2013-06-01 05:14:00,49.3,47.6,30.23,NE,36,0.0,0.0,94,0.00,CLR,OVC,0.00,WeatherDisplay:10.37,2013-06-01 12:14:00,
2013-06-01 05:16:00,49.2,47.5,30.23,NE,36,0.0,0.0,94,0.00,CLR,OVC,0.00,WeatherDisplay:10.37,2013-06-01 12:16:00,
2013-06-01 05:17:00,49.2,47.5,30.23,NE,36,0.0,0.0,94,0.00,CLR,OVC,0.00,WeatherDisplay:10.37,2013-06-01 12:17:00,
2013-06-01 05:19:00,49.3,47.6,30.23,NE,36,0.0,0.0,94,0.00,CLR,OVC,0.00,WeatherDisplay:10.37,2013-06-01 12:19:00,
2013-06-01 05:22:00,49.3,47.6,30.22,NE,36,0.0,0.0,94,0.00,CLR,OVC,0.00,WeatherDisplay:10.37,2013-06-01 12:22:00,
2013-06-01 05:23:00,49.3,47.6,30.22,NE,36,0.0,0.0,94,0.00,CLR,OVC,0.00,WeatherDisplay:10.37,2013-06-01 12:23:00,
2013-06-01 05:24:00,49.3,47.6,30.22,NE,36,0.0,0.0,94,0.00,CLR,OVC,0.00,WeatherDisplay:10.37,2013-06-01 12:24:00,
2013-06-01 05:25:00,49.4,47.7,30.22,NE,36,0.0,0.0,94,0.00,CLR,OVC,0.00,WeatherDisplay:10.37,2013-06-01 12:25:00,
2013-06-01 05:27:00,49.3,47.6,30.22,NE,36,0.0,0.0,94,0.00,CLR,OVC,0.00,WeatherDisplay:10.37,2013-06-01 12:27:00,
2013-06-01 05:28:00,49.4,47.7,30.22,NE,36,0.0,0.0,94,0.00,CLR,OVC,0.00,WeatherDisplay:10.37,2013-06-01 12:28:00,
2013-06-01 05:29:00,49.4,47.7,30.23,NE,36,0.0,0.0,94,0.00,CLR,OVC,0.00,WeatherDisplay:10.37,2013-06-01 12:29:00,
2013-06-01 05:30:00,49.4,47.7,30.23,NE,36,0.0,0.0,94,0.00,CLR,OVC,0.00,WeatherDisplay:10.37,2013-06-01 12:30:00,
2013-06-01 05:32:00,49.3,47.6,30.23,NE,36,0.0,0.0,94,0.00,CLR,OVC,0.00,WeatherDisplay:10.37,2013-06-01 12:32:00,
2013-06-01 05:33:00,49.3,47.6,30.23,NE,36,0.0,0.0,94,0.00,CLR,OVC,0.00,WeatherDisplay:10.37,2013-06-01 12:33:00,
2013-06-01 05:34:00,49.3,47.9,30.23,NE,36,0.0,0.0,95,0.00,CLR,OVC,0.00,WeatherDisplay:10.37,2013-06-01 12:34:00,
2013-06-01 05:35:00,49.3,47.9,30.23,NE,36,0.0,0.0,95,0.00,CLR,OVC,0.00,WeatherDisplay:10.37,2013-06-01 12:35:00,
2013-06-01 05:37:00,49.3,47.9,30.22,NE,36,0.0,0.0,95,0.00,CLR,OVC,0.00,WeatherDisplay:10.37,2013-06-01 12:37:00,
2013-06-01 05:39:00,49.2,47.8,30.22,NE,36,0.0,0.0,95,0.00,CLR,OVC,0.00,WeatherDisplay:10.37,2013-06-01 12:39:00,
2013-06-01 05:40:00,49.2,47.5,30.22,NE,36,0.0,0.0,94,0.00,CLR,OVC,0.00,WeatherDisplay:10.37,2013-06-01 12:40:00,
2013-06-01 05:42:00,49.2,47.5,30.22,NE,36,0.0,0.0,94,0.00,CLR,OVC,0.00,WeatherDisplay:10.37,2013-06-01 12:42:00,
2013-06-01 05:44:00,49.1,47.4,30.22,NE,36,0.0,0.0,94,0.00,CLR,OVC,0.00,WeatherDisplay:10.37,2013-06-01 12:44:00,
2013-06-01 05:45:00,49.1,47.4,30.22,NE,36,0.0,0.0,94,0.00,CLR,OVC,0.00,WeatherDisplay:10.37,2013-06-01 12:45:00,
2013-06-01 05:46:00,49.1,47.4,30.22,NE,36,0.0,0.0,94,0.00,CLR,OVC,0.00,WeatherDisplay:10.37,2013-06-01 12:46:00,
2013-06-01 05:48:00,49.1,47.4,30.22,NE,36,0.0,0.0,94,0.00,CLR,OVC,0.00,WeatherDisplay:10.37,2013-06-01 12:48:00,
2013-06-01 05:49:00,49.0,47.3,30.23,NE,36,0.0,0.0,94,0.00,CLR,OVC,0.00,WeatherDisplay:10.37,2013-06-01 12:49:00,
2013-06-01 05:50:00,49.0,47.4,30.23,NE,36,0.0,0.0,94,0.00,CLR,OVC,0.00,WeatherDisplay:10.37,2013-06-01 12:50:00,
2013-06-01 05:51:00,49.0,47.3,30.23,NE,36,0.0,0.0,94,0.00,CLR,OVC,0.00,WeatherDisplay:10.37,2013-06-01 12:51:00,
2013-06-01 05:53:00,49.0,47.3,30.23,NE,36,0.0,0.0,94,0.00,CLR,OVC,0.00,WeatherDisplay:10.37,2013-06-01 12:53:00,
2013-06-01 05:55:00,49.0,47.3,30.22,NE,36,0.0,0.0,94,0.00,CLR,OVC,0.00,WeatherDisplay:10.37,2013-06-01 12:55:00,
2013-06-01 05:56:00,49.0,47.3,30.23,NE,36,0.0,0.0,94,0.00,CLR,OVC,0.00,WeatherDisplay:10.37,2013-06-01 12:56:00,
2013-06-01 05:58:00,49.0,47.3,30.23,NE,36,0.0,0.0,94,0.00,CLR,OVC,0.00,WeatherDisplay:10.37,2013-06-01 12:58:00,
2013-06-01 06:00:00,49.0,47.3,30.22,NE,36,0.0,0.0,94,0.00,CLR,OVC,0.00,WeatherDisplay:10.37,2013-06-01 13:00:00,
2013-06-01 06:01:00,49.0,47.3,30.22,NE,36,0.0,0.0,94,0.00,CLR,OVC,0.00,WeatherDisplay:10.37,2013-06-01 13:01:00,
2013-06-01 06:03:00,49.0,47.3,30.22,NE,36,0.0,0.0,94,0.00,CLR,OVC,0.00,WeatherDisplay:10.37,2013-06-01 13:03:00,
2013-06-01 06:05:00,49.0,47.3,30.22,NE,36,0.0,0.0,94,0.00,CLR,OVC,0.00,WeatherDisplay:10.37,2013-06-01 13:05:00,
2013-06-01 06:06:00,49.1,47.4,30.22,NE,36,0.0,0.0,94,0.00,CLR,OVC,0.00,WeatherDisplay:10.37,2013-06-01 13:06:00,
2013-06-01 06:07:00,49.1,47.4,30.22,NE,36,0.0,0.0,94,0.00,CLR,OVC,0.00,WeatherDisplay:10.37,2013-06-01 13:07:00,
2013-06-01 06:09:00,49.1,47.7,30.22,NE,36,0.0,0.0,95,0.00,CLR,OVC,0.00,WeatherDisplay:10.37,2013-06-01 13:09:00,
2013-06-01 06:10:00,49.2,47.8,30.22,NE,36,0.0,0.0,95,0.00,CLR,OVC,0.00,WeatherDisplay:10.37,2013-06-01 13:10:00,
2013-06-01 06:11:00,49.2,47.5,30.22,NE,36,0.0,0.0,94,0.00,CLR,OVC,0.00,WeatherDisplay:10.37,2013-06-01 13:11:00,
2013-06-01 06:12:00,49.2,47.5,30.22,NE,36,0.0,0.0,94,0.00,CLR,OVC,0.00,WeatherDisplay:10.37,2013-06-01 13:12:00,
2013-06-01 06:14:00,49.2,47.5,30.22,NE,36,0.0,0.0,94,0.00,CLR,OVC,0.00,WeatherDisplay:10.37,2013-06-01 13:14:00,
2013-06-01 06:15:00,49.3,47.9,30.22,NE,36,0.0,0.0,95,0.00,CLR,OVC,0.00,WeatherDisplay:10.37,2013-06-01 13:15:00,
2013-06-01 06:17:00,49.3,47.9,30.22,NE,36,0.0,0.0,95,0.00,CLR,OVC,0.00,WeatherDisplay:10.37,2013-06-01 13:17:00,
2013-06-01 06:19:00,49.4,47.7,30.22,NE,36,0.0,0.0,94,0.00,CLR,OVC,0.00,WeatherDisplay:10.37,2013-06-01 13:19:00,
2013-06-01 06:21:00,49.4,47.7,30.22,NE,36,0.0,0.0,94,0.00,CLR,OVC,0.00,WeatherDisplay:10.37,2013-06-01 13:21:00,
2013-06-01 06:22:00,49.5,47.8,30.23,NE,36,0.0,0.0,94,0.00,CLR,OVC,0.00,WeatherDisplay:10.37,2013-06-01 13:22:00,
2013-06-01 06:23:00,49.5,47.8,30.23,NE,36,0.0,0.0,94,0.00,CLR,OVC,0.00,WeatherDisplay:10.37,2013-06-01 13:23:00,
2013-06-01 06:25:00,49.6,47.7,30.23,NE,36,0.0,0.0,93,0.00,CLR,OVC,0.00,WeatherDisplay:10.37,2013-06-01 13:25:00,
2013-06-01 06:26:00,49.6,47.9,30.23,NE,36,0.0,0.0,94,0.00,CLR,OVC,0.00,WeatherDisplay:10.37,2013-06-01 13:26:00,
2013-06-01 06:27:00,49.7,48.0,30.22,NE,36,0.0,0.0,94,0.00,CLR,OVC,0.00,WeatherDisplay:10.37,2013-06-01 13:27:00,
2013-06-01 06:28:00,49.7,48.0,30.23,NE,36,0.0,0.0,94,0.00,CLR,OVC,0.00,WeatherDisplay:10.37,2013-06-01 13:28:00,
2013-06-01 06:30:00,49.7,48.0,30.22,NE,36,0.0,0.0,94,0.00,CLR,OVC,0.00,WeatherDisplay:10.37,2013-06-01 13:30:00,
2013-06-01 06:31:00,49.8,48.1,30.23,NE,36,0.0,0.0,94,0.00,CLR,OVC,0.00,WeatherDisplay:10.37,2013-06-01 13:31:00,
2013-06-01 06:32:00,49.8,48.1,30.23,NE,36,0.0,0.0,94,0.00,CLR,OVC,0.00,WeatherDisplay:10.37,2013-06-01 13:32:00,
2013-06-01 06:33:00,49.8,48.1,30.23,NE,36,0.0,0.0,94,0.00,CLR,OVC,0.00,WeatherDisplay:10.37,2013-06-01 13:33:00,
2013-06-01 06:35:00,49.8,48.1,30.22,NE,36,0.0,0.0,94,0.00,CLR,OVC,0.00,WeatherDisplay:10.37,2013-06-01 13:35:00,
2013-06-01 06:36:00,49.8,48.1,30.22,NE,36,0.0,0.0,94,0.00,CLR,OVC,0.00,WeatherDisplay:10.37,2013-06-01 13:36:00,
2013-06-01 06:38:00,49.8,48.1,30.22,NE,36,0.0,0.0,94,0.00,CLR,OVC,0.00,WeatherDisplay:10.37,2013-06-01 13:38:00,
2013-06-01 06:41:00,49.9,48.2,30.22,NE,36,0.0,0.0,94,0.00,CLR,OVC,0.00,WeatherDisplay:10.37,2013-06-01 13:41:00,
2013-06-01 06:43:00,49.8,48.1,30.22,NE,36,0.0,0.0,94,0.00,CLR,OVC,0.00,WeatherDisplay:10.37,2013-06-01 13:43:00,
2013-06-01 06:46:00,49.9,48.2,30.22,NE,36,0.0,0.0,94,0.00,CLR,OVC,0.00,WeatherDisplay:10.37,2013-06-01 13:46:00,
2013-06-01 06:48:00,49.9,48.2,30.22,NE,36,0.0,0.0,94,0.00,CLR,OVC,0.00,WeatherDisplay:10.37,2013-06-01 13:48:00,
2013-06-01 06:49:00,49.9,48.0,30.22,NE,36,0.0,0.0,93,0.00,CLR,OVC,0.00,WeatherDisplay:10.37,2013-06-01 13:49:00,
2013-06-01 06:51:00,49.9,48.0,30.22,NE,36,0.0,0.0,93,0.00,CLR,OVC,0.00,WeatherDisplay:10.37,2013-06-01 13:51:00,
2013-06-01 06:52:00,49.9,48.0,30.22,NE,36,0.0,0.0,93,0.00,CLR,OVC,0.00,WeatherDisplay:10.37,2013-06-01 13:52:00,
2013-06-01 06:53:00,49.9,48.0,30.22,NE,36,0.0,0.0,93,0.00,CLR,OVC,0.00,WeatherDisplay:10.37,2013-06-01 13:53:00,
2013-06-01 06:54:00,49.9,48.0,30.22,NE,36,0.0,0.0,93,0.00,CLR,OVC,0.00,WeatherDisplay:10.37,2013-06-01 13:54:00,
2013-06-01 06:56:00,50.0,48.1,30.22,NE,36,0.0,0.0,93,0.00,CLR,OVC,0.00,WeatherDisplay:10.37,2013-06-01 13:56:00,
2013-06-01 06:57:00,50.0,48.1,30.22,NE,36,0.0,0.0,93,0.00,CLR,OVC,0.00,WeatherDisplay:10.37,2013-06-01 13:57:00,
2013-06-01 06:58:00,50.1,48.2,30.22,NE,36,0.0,0.0,93,0.00,CLR,OVC,0.00,WeatherDisplay:10.37,2013-06-01 13:58:00,
2013-06-01 06:59:00,50.1,48.2,30.22,NE,36,0.0,1.0,93,0.00,CLR,OVC,0.00,WeatherDisplay:10.37,2013-06-01 13:59:00,
2013-06-01 07:01:00,50.2,48.5,30.22,NE,36,0.0,1.2,94,0.00,CLR,OVC,0.00,WeatherDisplay:10.37,2013-06-01 14:01:00,
2013-06-01 07:02:00,50.2,48.5,30.22,NE,36,0.0,0.0,94,0.00,CLR,OVC,0.00,WeatherDisplay:10.37,2013-06-01 14:02:00,
2013-06-01 07:03:00,50.2,48.5,30.22,NE,36,0.0,0.0,94,0.00,CLR,OVC,0.00,WeatherDisplay:10.37,2013-06-01 14:03:00,
2013-06-01 07:04:00,50.2,48.5,30.22,NE,36,0.0,0.0,94,0.00,CLR,OVC,0.00,WeatherDisplay:10.37,2013-06-01 14:04:00,
2013-06-01 07:07:00,50.3,48.6,30.22,NE,36,0.0,0.0,94,0.00,CLR,OVC,0.00,WeatherDisplay:10.37,2013-06-01 14:07:00,
2013-06-01 07:09:00,50.3,48.6,30.22,NE,36,0.0,0.0,94,0.00,CLR,OVC,0.00,WeatherDisplay:10.37,2013-06-01 14:09:00,
2013-06-01 07:10:00,50.3,48.6,30.22,NE,36,0.0,0.0,94,0.00,CLR,OVC,0.00,WeatherDisplay:10.37,2013-06-01 14:10:00,
2013-06-01 07:12:00,50.3,48.6,30.22,NE,36,0.0,0.0,94,0.00,CLR,OVC,0.00,WeatherDisplay:10.37,2013-06-01 14:12:00,
2013-06-01 07:13:00,50.3,48.6,30.23,NE,36,0.0,0.0,94,0.00,CLR,OVC,0.00,WeatherDisplay:10.37,2013-06-01 14:13:00,
2013-06-01 07:14:00,50.3,48.6,30.22,NE,36,0.0,0.0,94,0.00,CLR,OVC,0.00,WeatherDisplay:10.37,2013-06-01 14:14:00,
2013-06-01 07:15:00,50.3,48.9,30.23,NE,36,0.0,0.0,95,0.00,CLR,OVC,0.00,WeatherDisplay:10.37,2013-06-01 14:15:00,
2013-06-01 07:17:00,50.4,48.7,30.23,NE,36,0.0,0.0,94,0.00,CLR,OVC,0.00,WeatherDisplay:10.37,2013-06-01 14:17:00,
2013-06-01 07:18:00,50.4,48.7,30.23,NE,36,0.0,0.0,94,0.00,CLR,OVC,0.00,WeatherDisplay:10.37,2013-06-01 14:18:00,
2013-06-01 07:19:00,50.4,48.7,30.23,NE,36,0.0,0.0,94,0.00,CLR,OVC,0.00,WeatherDisplay:10.37,2013-06-01 14:19:00,
2013-06-01 07:20:00,50.5,48.8,30.23,NE,36,0.0,0.0,94,0.00,CLR,OVC,0.00,WeatherDisplay:10.37,2013-06-01 14:20:00,
2013-06-01 07:22:00,50.5,49.1,30.23,NE,36,0.0,0.0,95,0.00,CLR,OVC,0.00,WeatherDisplay:10.37,2013-06-01 14:22:00,
2013-06-01 07:23:00,50.5,49.1,30.23,NE,36,0.0,0.0,95,0.00,CLR,OVC,0.00,WeatherDisplay:10.37,2013-06-01 14:23:00,
2013-06-01 07:24:00,50.6,49.2,30.23,NE,36,0.0,0.0,95,0.00,CLR,OVC,0.00,WeatherDisplay:10.37,2013-06-01 14:24:00,
2013-06-01 07:25:00,50.6,49.2,30.23,NE,36,0.0,0.0,95,0.00,CLR,OVC,0.00,WeatherDisplay:10.37,2013-06-01 14:25:00,
2013-06-01 07:26:00,50.6,49.2,30.23,NE,36,0.0,0.0,95,0.00,CLR,OVC,0.00,WeatherDisplay:10.37,2013-06-01 14:26:00,
2013-06-01 07:27:00,50.6,49.2,30.23,NE,36,0.0,1.0,95,0.00,CLR,OVC,0.00,WeatherDisplay:10.37,2013-06-01 14:27:00,
2013-06-01 07:29:00,50.7,49.3,30.23,NE,36,0.1,2.3,95,0.00,CLR,OVC,0.00,WeatherDisplay:10.37,2013-06-01 14:29:00,
2013-06-01 07:30:00,50.7,49.3,30.23,NE,36,0.0,1.2,95,0.00,CLR,OVC,0.00,WeatherDisplay:10.37,2013-06-01 14:30:00,
2013-06-01 07:31:00,50.7,49.3,30.23,NE,36,0.0,0.0,95,0.00,CLR,OVC,0.00,WeatherDisplay:10.37,2013-06-01 14:31:00,
2013-06-01 07:33:00,50.8,49.4,30.23,NE,36,0.0,0.0,95,0.00,CLR,OVC,0.00,WeatherDisplay:10.37,2013-06-01 14:33:00,
2013-06-01 07:35:00,50.9,49.5,30.23,NE,36,0.0,0.0,95,0.00,CLR,OVC,0.00,WeatherDisplay:10.37,2013-06-01 14:35:00,
2013-06-01 07:36:00,50.9,49.5,30.23,NE,36,0.0,0.0,95,0.00,CLR,OVC,0.00,WeatherDisplay:10.37,2013-06-01 14:36:00,
2013-06-01 07:38:00,51.1,49.7,30.23,NE,36,0.0,0.0,95,0.00,CLR,OVC,0.00,WeatherDisplay:10.37,2013-06-01 14:38:00,
2013-06-01 07:40:00,51.2,49.8,30.23,NE,36,0.0,0.0,95,0.00,CLR,OVC,0.00,WeatherDisplay:10.37,2013-06-01 14:40:00,
2013-06-01 07:41:00,51.2,49.8,30.23,NE,36,0.0,0.0,95,0.00,CLR,OVC,0.00,WeatherDisplay:10.37,2013-06-01 14:41:00,
2013-06-01 07:43:00,51.3,49.3,30.22,NE,36,0.9,2.3,93,0.00,CLR,OVC,0.00,WeatherDisplay:10.37,2013-06-01 14:43:00,
2013-06-01 07:45:00,51.4,49.4,30.22,NE,36,0.3,1.0,93,0.00,CLR,OVC,0.00,WeatherDisplay:10.37,2013-06-01 14:45:00,
2013-06-01 07:46:00,51.4,49.4,30.22,NE,36,0.3,1.2,93,0.00,CLR,OVC,0.00,WeatherDisplay:10.37,2013-06-01 14:46:00,
2013-06-01 07:47:00,51.4,49.4,30.22,NE,36,0.0,1.2,93,0.00,CLR,OVC,0.00,WeatherDisplay:10.37,2013-06-01 14:47:00,
2013-06-01 07:48:00,51.5,49.8,30.22,NE,36,0.0,1.2,94,0.00,CLR,OVC,0.00,WeatherDisplay:10.37,2013-06-01 14:48:00,
2013-06-01 07:51:00,51.6,49.9,30.23,NE,36,0.1,1.2,94,0.00,CLR,OVC,0.00,WeatherDisplay:10.37,2013-06-01 14:51:00,
2013-06-01 07:52:00,51.7,50.0,30.23,NE,36,0.0,0.0,94,0.00,CLR,OVC,0.00,WeatherDisplay:10.37,2013-06-01 14:52:00,
2013-06-01 07:53:00,51.7,50.0,30.23,NE,36,1.2,2.3,94,0.00,CLR,OVC,0.00,WeatherDisplay:10.37,2013-06-01 14:53:00,
2013-06-01 07:56:00,51.7,49.7,30.23,NE,36,0.0,0.0,93,0.00,CLR,OVC,0.00,WeatherDisplay:10.37,2013-06-01 14:56:00,
2013-06-01 07:57:00,51.7,49.7,30.23,NE,36,0.0,0.0,93,0.00,CLR,OVC,0.00,WeatherDisplay:10.37,2013-06-01 14:57:00,
2013-06-01 07:59:00,51.7,49.7,30.23,NE,36,0.7,3.5,93,0.00,CLR,OVC,0.00,WeatherDisplay:10.37,2013-06-01 14:59:00,
2013-06-01 08:01:00,51.5,49.5,30.23,NE,36,0.0,0.0,93,0.00,CLR,OVC,0.00,WeatherDisplay:10.37,2013-06-01 15:01:00,
2013-06-01 08:02:00,51.5,49.3,30.23,NE,36,0.0,0.0,92,0.00,CLR,OVC,0.00,WeatherDisplay:10.37,2013-06-01 15:02:00,
2013-06-01 08:04:00,51.7,49.7,30.22,NE,36,0.0,0.0,93,0.00,CLR,OVC,0.00,WeatherDisplay:10.37,2013-06-01 15:04:00,
2013-06-01 08:06:00,51.7,49.5,30.22,NE,36,0.0,0.0,92,0.00,CLR,OVC,0.00,WeatherDisplay:10.37,2013-06-01 15:06:00,
2013-06-01 08:07:00,51.7,49.5,30.22,NE,36,0.0,0.0,92,0.00,CLR,OVC,0.00,WeatherDisplay:10.37,2013-06-01 15:07:00,
2013-06-01 08:09:00,51.7,50.0,30.22,NE,36,0.0,0.0,94,0.00,CLR,OVC,0.00,WeatherDisplay:10.37,2013-06-01 15:09:00,
2013-06-01 08:11:00,51.8,50.1,30.22,NE,36,0.0,0.0,94,0.00,CLR,OVC,0.00,WeatherDisplay:10.37,2013-06-01 15:11:00,
2013-06-01 08:12:00,51.8,50.1,30.22,NE,36,0.0,0.0,94,0.00,CLR,OVC,0.00,WeatherDisplay:10.37,2013-06-01 15:12:00,
2013-06-01 08:15:00,51.7,50.0,30.22,NE,36,0.0,0.0,94,0.00,CLR,OVC,0.00,WeatherDisplay:10.37,2013-06-01 15:15:00,
2013-06-01 08:17:00,51.6,49.6,30.22,NE,36,2.0,3.5,93,0.00,CLR,OVC,0.00,WeatherDisplay:10.37,2013-06-01 15:17:00,
2013-06-01 08:18:00,51.6,49.6,30.22,NE,36,0.7,3.5,93,0.00,CLR,OVC,0.00,WeatherDisplay:10.37,2013-06-01 15:18:00,
2013-06-01 08:20:00,51.6,49.6,30.22,NE,36,1.1,2.0,93,0.00,CLR,OVC,0.00,WeatherDisplay:10.37,2013-06-01 15:20:00,
2013-06-01 08:22:00,51.6,49.6,30.22,NE,36,0.0,1.2,93,0.00,CLR,OVC,0.00,WeatherDisplay:10.37,2013-06-01 15:22:00,
2013-06-01 08:23:00,51.6,49.6,30.22,NE,36,0.1,1.2,93,0.00,CLR,OVC,0.00,WeatherDisplay:10.37,2013-06-01 15:23:00,
2013-06-01 08:25:00,51.7,49.7,30.22,NE,36,0.2,1.2,93,0.00,CLR,OVC,0.00,WeatherDisplay:10.37,2013-06-01 15:25:00,
2013-06-01 08:27:00,51.8,49.5,30.22,NE,36,1.6,3.5,92,0.00,CLR,OVC,0.00,WeatherDisplay:10.37,2013-06-01 15:27:00,
2013-06-01 08:28:00,51.8,49.5,30.22,NE,36,2.2,3.5,92,0.00,CLR,OVC,0.00,WeatherDisplay:10.37,2013-06-01 15:28:00,
2013-06-01 08:30:00,51.8,49.0,30.22,WSW,241,0.3,3.5,90,0.00,CLR,OVC,0.00,WeatherDisplay:10.37,2013-06-01 15:30:00,
2013-06-01 08:33:00,51.8,49.3,30.22,South,191,0.6,3.0,91,0.00,CLR,OVC,0.00,WeatherDisplay:10.37,2013-06-01 15:33:00,
2013-06-01 08:35:00,51.8,49.3,30.22,SSW,196,0.5,2.3,91,0.00,CLR,OVC,0.00,WeatherDisplay:10.37,2013-06-01 15:35:00,
2013-06-01 08:38:00,51.9,49.1,30.22,SW,217,2.1,3.5,90,0.00,CLR,OVC,0.00,WeatherDisplay:10.37,2013-06-01 15:38:00,
2013-06-01 08:40:00,51.8,49.0,30.21,SW,229,0.4,2.3,90,0.00,CLR,OVC,0.00,WeatherDisplay:10.37,2013-06-01 15:40:00,
2013-06-01 08:43:00,51.9,49.4,30.21,SW,229,0.0,0.0,91,0.00,CLR,OVC,0.00,WeatherDisplay:10.37,2013-06-01 15:43:00,
2013-06-01 08:44:00,51.9,49.4,30.21,SW,229,0.0,0.0,91,0.00,CLR,OVC,0.00,WeatherDisplay:10.37,2013-06-01 15:44:00,
2013-06-01 08:45:00,51.9,49.1,30.22,SW,221,1.9,3.5,90,0.00,CLR,OVC,0.00,WeatherDisplay:10.37,2013-06-01 15:45:00,
2013-06-01 08:48:00,51.9,48.8,30.22,SW,221,1.1,3.5,89,0.00,CLR,OVC,0.00,WeatherDisplay:10.37,2013-06-01 15:48:00,
2013-06-01 08:49:00,52.0,48.9,30.22,SW,223,0.1,3.5,89,0.00,CLR,OVC,0.00,WeatherDisplay:10.37,2013-06-01 15:49:00,
2013-06-01 08:50:00,52.0,48.9,30.22,SW,223,0.0,1.2,89,0.00,CLR,OVC,0.00,WeatherDisplay:10.37,2013-06-01 15:50:00,
2013-06-01 08:51:00,52.1,49.0,30.22,SW,223,0.0,0.0,89,0.00,CLR,OVC,0.00,WeatherDisplay:10.37,2013-06-01 15:51:00,
2013-06-01 08:53:00,52.2,49.7,30.22,SW,223,0.9,3.5,91,0.00,CLR,OVC,0.00,WeatherDisplay:10.37,2013-06-01 15:53:00,
2013-06-01 08:54:00,52.2,49.4,30.22,SW,223,1.2,3.5,90,0.00,CLR,OVC,0.00,WeatherDisplay:10.37,2013-06-01 15:54:00,
2013-06-01 08:55:00,52.2,49.4,30.22,SW,223,0.1,2.3,90,0.00,CLR,OVC,0.00,WeatherDisplay:10.37,2013-06-01 15:55:00,
2013-06-01 08:56:00,52.3,49.8,30.22,SW,223,0.5,1.2,91,0.00,CLR,OVC,0.00,WeatherDisplay:10.37,2013-06-01 15:56:00,
2013-06-01 08:58:00,52.4,49.3,30.21,SW,221,2.9,4.0,89,0.00,CLR,OVC,0.00,WeatherDisplay:10.37,2013-06-01 15:58:00,
2013-06-01 08:59:00,52.4,49.3,30.21,SW,219,3.0,3.5,89,0.00,CLR,OVC,0.00,WeatherDisplay:10.37,2013-06-01 15:59:00,
2013-06-01 09:00:00,52.4,49.3,30.21,SSW,211,2.5,3.5,89,0.00,CLR,OVC,0.00,WeatherDisplay:10.37,2013-06-01 16:00:00,
2013-06-01 09:01:00,52.4,49.3,30.21,WSW,238,2.7,5.0,89,0.00,CLR,OVC,0.00,WeatherDisplay:10.37,2013-06-01 16:01:00,
2013-06-01 09:03:00,52.5,49.4,30.22,SSW,210,0.6,3.5,89,0.00,CLR,OVC,0.00,WeatherDisplay:10.37,2013-06-01 16:03:00,
2013-06-01 09:04:00,52.5,49.4,30.22,SSW,209,1.1,3.5,89,0.00,CLR,OVC,0.00,WeatherDisplay:10.37,2013-06-01 16:04:00,
2013-06-01 09:06:00,52.6,49.8,30.22,SSW,211,0.7,3.5,90,0.00,CLR,OVC,0.00,WeatherDisplay:10.37,2013-06-01 16:06:00,
2013-06-01 09:09:00,52.9,49.7,30.22,SW,225,0.7,4.0,89,0.00,CLR,OVC,0.00,WeatherDisplay:10.37,2013-06-01 16:09:00,
2013-06-01 09:10:00,53.0,50.1,30.22,SW,225,1.6,3.5,90,0.00,CLR,OVC,0.00,WeatherDisplay:10.37,2013-06-01 16:10:00,
2013-06-01 09:11:00,53.0,49.5,30.22,SW,225,0.8,2.3,88,0.00,CLR,OVC,0.00,WeatherDisplay:10.37,2013-06-01 16:11:00,
2013-06-01 09:15:00,53.2,50.0,30.22,SW,225,0.0,1.2,89,0.00,CLR,OVC,0.00,WeatherDisplay:10.37,2013-06-01 16:15:00,
2013-06-01 09:16:00,53.3,50.1,30.22,SW,224,0.2,1.2,89,0.00,CLR,OVC,0.00,WeatherDisplay:10.37,2013-06-01 16:16:00,
2013-06-01 09:20:00,53.2,49.4,30.22,SW,221,1.1,3.5,87,0.00,CLR,OVC,0.00,WeatherDisplay:10.37,2013-06-01 16:20:00,
2013-06-01 09:21:00,53.3,49.5,30.22,SW,223,1.5,3.5,87,0.00,CLR,OVC,0.00,WeatherDisplay:10.37,2013-06-01 16:21:00,
2013-06-01 09:22:00,53.3,49.8,30.22,SW,223,1.7,3.5,88,0.00,CLR,OVC,0.00,WeatherDisplay:10.37,2013-06-01 16:22:00,
2013-06-01 09:25:00,53.5,50.0,30.22,SW,219,1.2,2.3,88,0.00,CLR,OVC,0.00,WeatherDisplay:10.37,2013-06-01 16:25:00,
2013-06-01 09:26:00,53.5,50.0,30.22,SW,218,0.8,2.3,88,0.00,CLR,OVC,0.00,WeatherDisplay:10.37,2013-06-01 16:26:00,
2013-06-01 09:27:00,53.6,50.1,30.22,SW,218,0.9,2.3,88,0.00,CLR,OVC,0.00,WeatherDisplay:10.37,2013-06-01 16:27:00,
2013-06-01 09:28:00,53.7,50.2,30.22,SW,218,1.0,2.3,88,0.00,CLR,OVC,0.00,WeatherDisplay:10.37,2013-06-01 16:28:00,
2013-06-01 09:30:00,53.9,49.8,30.22,SW,223,0.3,3.5,86,0.00,CLR,OVC,0.00,WeatherDisplay:10.37,2013-06-01 16:30:00,
2013-06-01 09:31:00,53.9,49.8,30.22,SW,223,0.4,3.5,86,0.00,CLR,OVC,0.00,WeatherDisplay:10.37,2013-06-01 16:31:00,
2013-06-01 09:32:00,54.0,49.9,30.22,SW,223,1.8,3.5,86,0.00,CLR,OVC,0.00,WeatherDisplay:10.37,2013-06-01 16:32:00,
2013-06-01 09:33:00,54.0,49.9,30.22,SW,223,1.7,3.5,86,0.00,CLR,OVC,0.00,WeatherDisplay:10.37,2013-06-01 16:33:00,
2013-06-01 09:36:00,54.1,50.3,30.21,SW,223,0.8,1.2,87,0.00,CLR,OVC,0.00,WeatherDisplay:10.37,2013-06-01 16:36:00,
2013-06-01 09:37:00,54.3,49.9,30.22,SW,223,0.5,1.2,85,0.00,CLR,OVC,0.00,WeatherDisplay:10.37,2013-06-01 16:37:00,
2013-06-01 09:38:00,54.4,50.6,30.22,SW,223,0.9,3.0,87,0.00,CLR,OVC,0.00,WeatherDisplay:10.37,2013-06-01 16:38:00,
2013-06-01 09:41:00,54.5,50.4,30.21,SW,216,1.1,3.5,86,0.00,CLR,OVC,0.00,WeatherDisplay:10.37,2013-06-01 16:41:00,
2013-06-01 09:42:00,54.6,50.8,30.21,SW,216,0.0,0.0,87,0.00,CLR,OVC,0.00,WeatherDisplay:10.37,2013-06-01 16:42:00,
2013-06-01 09:43:00,54.7,51.2,30.21,SW,216,0.1,1.2,88,0.00,CLR,OVC,0.00,WeatherDisplay:10.37,2013-06-01 16:43:00,
2013-06-01 09:46:00,55.0,50.9,30.21,SW,216,0.1,1.2,86,0.00,CLR,OVC,0.00,WeatherDisplay:10.37,2013-06-01 16:46:00,
2013-06-01 09:47:00,55.0,50.9,30.21,SSW,196,0.3,2.0,86,0.00,CLR,OVC,0.00,WeatherDisplay:10.37,2013-06-01 16:47:00,
2013-06-01 09:49:00,55.1,50.7,30.21,SSW,196,0.0,0.0,85,0.00,CLR,OVC,0.00,WeatherDisplay:10.37,2013-06-01 16:49:00,
2013-06-01 09:51:00,55.1,50.7,30.21,SSW,209,0.6,2.3,85,0.00,CLR,OVC,0.00,WeatherDisplay:10.37,2013-06-01 16:51:00,
2013-06-01 09:52:00,55.1,50.7,30.21,SSW,209,0.3,2.3,85,0.00,CLR,OVC,0.00,WeatherDisplay:10.37,2013-06-01 16:52:00,
2013-06-01 09:53:00,55.0,50.6,30.21,SSW,209,0.0,1.2,85,0.00,CLR,OVC,0.00,WeatherDisplay:10.37,2013-06-01 16:53:00,
2013-06-01 09:54:00,55.0,50.6,30.21,SSW,209,0.0,1.2,85,0.00,CLR,OVC,0.00,WeatherDisplay:10.37,2013-06-01 16:54:00,
2013-06-01 09:56:00,54.9,50.2,30.21,SSW,209,0.1,1.2,84,0.00,CLR,OVC,0.00,WeatherDisplay:10.37,2013-06-01 16:56:00,
2013-06-01 09:57:00,54.9,50.2,30.21,SSW,209,0.1,1.2,84,0.00,CLR,OVC,0.00,WeatherDisplay:10.37,2013-06-01 16:57:00,
2013-06-01 09:58:00,54.9,50.8,30.21,SSW,209,0.0,1.2,86,0.00,CLR,OVC,0.00,WeatherDisplay:10.37,2013-06-01 16:58:00,
2013-06-01 09:59:00,54.9,50.8,30.21,SSW,209,0.1,1.2,86,0.00,CLR,OVC,0.00,WeatherDisplay:10.37,2013-06-01 16:59:00,
2013-06-01 10:02:00,54.9,50.8,30.21,SSW,209,0.0,1.2,86,0.00,CLR,OVC,0.00,WeatherDisplay:10.37,2013-06-01 17:02:00,
2013-06-01 10:03:00,54.9,51.1,30.21,SSW,209,0.0,0.0,87,0.00,CLR,OVC,0.00,WeatherDisplay:10.37,2013-06-01 17:03:00,
2013-06-01 10:05:00,55.0,51.2,30.21,SW,227,1.2,3.5,87,0.00,CLR,OVC,0.00,WeatherDisplay:10.37,2013-06-01 17:05:00,
2013-06-01 10:07:00,55.0,50.9,30.21,SW,227,0.0,1.2,86,0.00,CLR,OVC,0.00,WeatherDisplay:10.37,2013-06-01 17:07:00,
2013-06-01 10:08:00,55.0,50.9,30.21,SW,229,0.7,1.2,86,0.00,CLR,OVC,0.00,WeatherDisplay:10.37,2013-06-01 17:08:00,
2013-06-01 10:10:00,55.0,50.6,30.21,SW,229,1.0,3.5,85,0.00,CLR,OVC,0.00,WeatherDisplay:10.37,2013-06-01 17:10:00,
2013-06-01 10:12:00,55.0,50.6,30.21,SW,229,0.3,2.3,85,0.00,CLR,OVC,0.00,WeatherDisplay:10.37,2013-06-01 17:12:00,
2013-06-01 10:13:00,55.0,50.9,30.21,SW,229,0.0,2.3,86,0.00,CLR,OVC,0.00,WeatherDisplay:10.37,2013-06-01 17:13:00,
2013-06-01 10:15:00,54.9,50.5,30.21,SW,229,0.3,1.2,85,0.00,CLR,OVC,0.00,WeatherDisplay:10.37,2013-06-01 17:15:00,
2013-06-01 10:17:00,55.0,50.6,30.20,SW,229,1.0,3.5,85,0.00,CLR,OVC,0.00,WeatherDisplay:10.37,2013-06-01 17:17:00,
2013-06-01 10:18:00,55.0,50.9,30.20,SW,229,0.2,1.2,86,0.00,CLR,OVC,0.00,WeatherDisplay:10.37,2013-06-01 17:18:00,
2013-06-01 10:19:00,55.0,50.9,30.20,SW,229,0.4,1.2,86,0.00,CLR,OVC,0.00,WeatherDisplay:10.37,2013-06-01 17:19:00,
2013-06-01 10:20:00,55.1,50.4,30.20,WSW,245,2.1,3.5,84,0.00,CLR,OVC,0.00,WeatherDisplay:10.37,2013-06-01 17:20:00,
2013-06-01 10:23:00,55.2,50.4,30.20,WSW,245,2.9,3.5,84,0.00,CLR,OVC,0.00,WeatherDisplay:10.37,2013-06-01 17:23:00,
2013-06-01 10:24:00,55.2,50.4,30.20,WSW,245,2.8,3.5,84,0.00,CLR,OVC,0.00,WeatherDisplay:10.37,2013-06-01 17:24:00,
2013-06-01 10:25:00,55.1,50.4,30.20,South,180,1.1,3.5,84,0.00,CLR,OVC,0.00,WeatherDisplay:10.37,2013-06-01 17:25:00,
2013-06-01 10:28:00,55.1,50.4,30.20,SW,219,0.0,3.5,84,0.00,CLR,OVC,0.00,WeatherDisplay:10.37,2013-06-01 17:28:00,
2013-06-01 10:29:00,55.1,50.4,30.20,SW,219,0.2,3.5,84,0.00,CLR,OVC,0.00,WeatherDisplay:10.37,2013-06-01 17:29:00,
2013-06-01 10:30:00,55.2,50.8,30.20,SW,220,1.6,3.5,85,0.00,CLR,OVC,0.00,WeatherDisplay:10.37,2013-06-01 17:30:00,
2013-06-01 10:34:00,55.7,51.3,30.20,SW,234,1.6,3.5,85,0.00,CLR,OVC,0.00,WeatherDisplay:10.37,2013-06-01 17:34:00,
2013-06-01 10:35:00,55.9,51.8,30.20,SW,234,2.7,4.0,86,0.00,CLR,OVC,0.00,WeatherDisplay:10.37,2013-06-01 17:35:00,
2013-06-01 10:39:00,56.4,52.3,30.20,SSW,207,1.2,2.3,86,0.00,CLR,OVC,0.00,WeatherDisplay:10.37,2013-06-01 17:39:00,
2013-06-01 10:40:00,56.6,52.5,30.20,SSW,209,1.0,2.3,86,0.00,CLR,OVC,0.00,WeatherDisplay:10.37,2013-06-01 17:40:00,
2013-06-01 10:44:00,56.6,50.5,30.20,WSW,241,3.8,4.6,80,0.00,CLR,OVC,0.00,WeatherDisplay:10.37,2013-06-01 17:44:00,
2013-06-01 10:45:00,56.5,50.1,30.20,WSW,241,2.1,4.6,79,0.00,CLR,OVC,0.00,WeatherDisplay:10.37,2013-06-01 17:45:00,
2013-06-01 10:49:00,56.6,50.8,30.20,SW,221,3.6,5.8,81,0.00,CLR,OVC,0.00,WeatherDisplay:10.37,2013-06-01 17:49:00,
2013-06-01 10:50:00,56.6,49.8,30.20,SW,221,3.3,5.8,78,0.00,CLR,OVC,0.00,WeatherDisplay:10.37,2013-06-01 17:50:00,
2013-06-01 10:51:00,56.6,49.8,30.20,SW,226,3.4,5.0,78,0.00,CLR,OVC,0.00,WeatherDisplay:10.37,2013-06-01 17:51:00,
2013-06-01 10:54:00,56.6,50.5,30.19,WSW,244,2.3,3.5,80,0.00,CLR,OVC,0.00,WeatherDisplay:10.37,2013-06-01 17:54:00,
2013-06-01 10:55:00,56.5,50.4,30.19,WSW,244,1.5,3.5,80,0.00,CLR,OVC,0.00,WeatherDisplay:10.37,2013-06-01 17:55:00,
2013-06-01 10:56:00,56.6,51.2,30.19,WSW,244,1.9,3.5,82,0.00,CLR,OVC,0.00,WeatherDisplay:10.37,2013-06-01 17:56:00,
2013-06-01 10:59:00,56.9,50.8,30.19,South,173,3.5,5.8,80,0.00,CLR,OVC,0.00,WeatherDisplay:10.37,2013-06-01 17:59:00,
2013-06-01 11:00:00,56.9,50.8,30.19,South,173,3.3,4.6,80,0.00,CLR,OVC,0.00,WeatherDisplay:10.37,2013-06-01 18:00:00,
2013-06-01 11:01:00,57.0,50.9,30.19,SW,215,2.7,3.5,80,0.00,CLR,OVC,0.00,WeatherDisplay:10.37,2013-06-01 18:01:00,
2013-06-01 11:02:00,57.1,51.0,30.19,SW,219,2.5,3.5,80,0.00,CLR,OVC,0.00,WeatherDisplay:10.37,2013-06-01 18:02:00,
2013-06-01 11:04:00,57.2,51.1,30.19,SSW,200,0.2,2.3,80,0.00,CLR,OVC,0.00,WeatherDisplay:10.37,2013-06-01 18:04:00,
2013-06-01 11:05:00,57.3,51.5,30.19,SSW,202,2.5,4.6,81,0.00,CLR,OVC,0.00,WeatherDisplay:10.37,2013-06-01 18:05:00,
2013-06-01 11:07:00,57.6,51.1,30.19,SSW,209,3.5,5.8,79,0.00,CLR,OVC,0.00,WeatherDisplay:10.37,2013-06-01 18:07:00,
2013-06-01 11:09:00,57.7,50.9,30.19,SW,225,3.6,5.8,78,0.00,CLR,OVC,0.00,WeatherDisplay:10.37,2013-06-01 18:09:00,
2013-06-01 11:10:00,57.7,50.9,30.19,SW,225,4.5,4.6,78,0.00,CLR,OVC,0.00,WeatherDisplay:10.37,2013-06-01 18:10:00,
2013-06-01 11:12:00,57.6,50.8,30.19,SW,225,2.7,4.6,78,0.00,CLR,OVC,0.00,WeatherDisplay:10.37,2013-06-01 18:12:00,
2013-06-01 11:13:00,57.6,51.5,30.19,SW,225,0.4,3.5,80,0.00,CLR,OVC,0.00,WeatherDisplay:10.37,2013-06-01 18:13:00,
2013-06-01 11:14:00,57.7,51.6,30.19,SW,228,2.6,5.8,80,0.00,CLR,OVC,0.00,WeatherDisplay:10.37,2013-06-01 18:14:00,
2013-06-01 11:16:00,57.8,51.7,30.19,SW,228,3.0,4.6,80,0.00,CLR,OVC,0.00,WeatherDisplay:10.37,2013-06-01 18:16:00,
2013-06-01 11:17:00,57.9,51.4,30.19,SW,228,3.0,4.6,79,0.00,CLR,OVC,0.00,WeatherDisplay:10.37,2013-06-01 18:17:00,
2013-06-01 11:19:00,58.1,51.3,30.19,SW,228,0.4,2.3,78,0.00,CLR,OVC,0.00,WeatherDisplay:10.37,2013-06-01 18:19:00,
2013-06-01 11:20:00,58.1,51.3,30.19,SW,228,0.2,2.3,78,0.00,CLR,OVC,0.00,WeatherDisplay:10.37,2013-06-01 18:20:00,
2013-06-01 11:21:00,58.2,52.1,30.19,SW,228,0.0,1.2,80,0.00,CLR,OVC,0.00,WeatherDisplay:10.37,2013-06-01 18:21:00,
2013-06-01 11:22:00,58.4,52.3,30.19,SW,228,2.9,4.6,80,0.00,CLR,OVC,0.00,WeatherDisplay:10.37,2013-06-01 18:22:00,
2013-06-01 11:23:00,58.6,51.8,30.19,SW,228,2.5,4.6,78,0.00,CLR,OVC,0.00,WeatherDisplay:10.37,2013-06-01 18:23:00,
2013-06-01 11:24:00,58.7,51.9,30.19,SW,228,0.5,2.3,78,0.00,CLR,OVC,0.00,WeatherDisplay:10.37,2013-06-01 18:24:00,
2013-06-01 11:25:00,58.7,52.5,30.19,SW,228,0.1,2.3,80,0.00,CLR,OVC,0.00,WeatherDisplay:10.37,2013-06-01 18:25:00,
2013-06-01 11:26:00,58.9,51.7,30.19,SW,228,0.7,3.5,77,0.00,CLR,OVC,0.00,WeatherDisplay:10.37,2013-06-01 18:26:00,
2013-06-01 11:27:00,59.0,51.4,30.19,SW,228,3.3,5.8,76,0.00,CLR,OVC,0.00,WeatherDisplay:10.37,2013-06-01 18:27:00,
2013-06-01 11:28:00,59.0,51.1,30.19,SW,228,1.9,3.5,75,0.00,CLR,OVC,0.00,WeatherDisplay:10.37,2013-06-01 18:28:00,
2013-06-01 11:29:00,59.0,51.1,30.19,SW,228,0.3,2.3,75,0.00,CLR,OVC,0.00,WeatherDisplay:10.37,2013-06-01 18:29:00,
2013-06-01 11:30:00,58.9,51.0,30.19,SW,228,0.0,2.3,75,0.00,CLR,OVC,0.00,WeatherDisplay:10.37,2013-06-01 18:30:00,
2013-06-01 11:31:00,59.0,51.4,30.19,SW,228,0.0,0.0,76,0.00,CLR,OVC,0.00,WeatherDisplay:10.37,2013-06-01 18:31:00,
2013-06-01 11:33:00,59.2,52.0,30.18,SW,228,0.7,3.5,77,0.00,CLR,OVC,0.00,WeatherDisplay:10.37,2013-06-01 18:33:00,
2013-06-01 11:35:00,59.4,52.2,30.19,SW,220,1.6,3.5,77,0.00,CLR,OVC,0.00,WeatherDisplay:10.37,2013-06-01 18:35:00,
2013-06-01 11:36:00,59.5,52.3,30.19,SSW,202,0.7,3.5,77,0.00,CLR,OVC,0.00,WeatherDisplay:10.37,2013-06-01 18:36:00,
2013-06-01 11:37:00,59.6,52.0,30.19,SSW,202,3.0,3.5,76,0.00,CLR,OVC,0.00,WeatherDisplay:10.37,2013-06-01 18:37:00,
2013-06-01 11:38:00,59.8,51.5,30.19,SSW,196,0.7,3.5,74,0.00,CLR,OVC,0.00,WeatherDisplay:10.37,2013-06-01 18:38:00,
2013-06-01 11:39:00,59.8,51.5,30.19,SSW,196,1.2,3.5,74,0.00,CLR,OVC,0.00,WeatherDisplay:10.37,2013-06-01 18:39:00,
2013-06-01 11:40:00,59.8,51.5,30.19,SSW,196,1.3,2.3,74,0.00,CLR,OVC,0.00,WeatherDisplay:10.37,2013-06-01 18:40:00,
2013-06-01 11:41:00,60.0,52.4,30.19,WSW,240,2.6,5.8,76,0.00,CLR,OVC,0.00,WeatherDisplay:10.37,2013-06-01 18:41:00,
2013-06-01 11:42:00,60.0,51.3,30.19,WSW,237,4.1,5.8,73,0.00,CLR,OVC,0.00,WeatherDisplay:10.37,2013-06-01 18:42:00,
2013-06-01 11:44:00,60.0,50.9,30.19,WSW,237,1.0,3.5,72,0.00,CLR,OVC,0.00,WeatherDisplay:10.37,2013-06-01 18:44:00,
2013-06-01 11:45:00,60.0,50.9,30.19,WSW,237,1.0,1.2,72,0.00,CLR,OVC,0.00,WeatherDisplay:10.37,2013-06-01 18:45:00,
2013-06-01 11:46:00,60.0,50.9,30.19,WSW,237,1.0,1.2,72,0.00,CLR,OVC,0.00,WeatherDisplay:10.37,2013-06-01 18:46:00,
2013-06-01 11:47:00,60.0,50.9,30.19,WSW,237,1.0,1.2,72,0.00,CLR,OVC,0.00,WeatherDisplay:10.37,2013-06-01 18:47:00,
2013-06-01 11:49:00,60.7,53.8,30.19,SW,227,2.9,4.0,78,0.00,CLR,OVC,0.00,WeatherDisplay:10.37,2013-06-01 18:49:00,
2013-06-01 11:50:00,60.7,52.0,30.19,SW,227,3.3,3.5,73,0.00,CLR,OVC,0.00,WeatherDisplay:10.37,2013-06-01 18:50:00,
2013-06-01 11:51:00,60.8,52.5,30.18,SW,227,1.4,3.5,74,0.00,CLR,OVC,0.00,WeatherDisplay:10.37,2013-06-01 18:51:00,
2013-06-01 11:53:00,60.9,53.3,30.18,SW,227,0.0,2.3,76,0.00,CLR,OVC,0.00,WeatherDisplay:10.37,2013-06-01 18:53:00,
2013-06-01 11:55:00,61.3,52.9,30.18,WSW,243,1.7,6.0,74,0.00,CLR,OVC,0.00,WeatherDisplay:10.37,2013-06-01 18:55:00,
2013-06-01 11:58:00,61.6,51.7,30.18,WSW,245,0.5,3.5,70,0.00,CLR,OVC,0.00,WeatherDisplay:10.37,2013-06-01 18:58:00,
2013-06-01 12:00:00,61.9,52.4,30.18,WSW,245,1.3,3.0,71,0.00,CLR,OVC,0.00,WeatherDisplay:10.37,2013-06-01 19:00:00,
2013-06-01 12:03:00,62.2,52.7,30.18,WSW,245,0.8,3.5,71,0.00,CLR,OVC,0.00,WeatherDisplay:10.37,2013-06-01 19:03:00,
2013-06-01 12:05:00,62.4,52.9,30.18,WSW,245,0.2,1.2,71,0.00,CLR,OVC,0.00,WeatherDisplay:10.37,2013-06-01 19:05:00,
2013-06-01 12:06:00,62.5,53.0,30.18,WSW,245,1.8,2.0,71,0.00,CLR,OVC,0.00,WeatherDisplay:10.37,2013-06-01 19:06:00,
2013-06-01 12:08:00,62.6,52.7,30.18,WSW,245,0.2,2.3,70,0.00,CLR,OVC,0.00,WeatherDisplay:10.37,2013-06-01 19:08:00,
2013-06-01 12:10:00,62.7,52.8,30.18,WSW,245,0.9,2.3,70,0.00,CLR,OVC,0.00,WeatherDisplay:10.37,2013-06-01 19:10:00,
2013-06-01 12:11:00,62.7,52.8,30.18,WSW,245,0.2,1.2,70,0.00,CLR,OVC,0.00,WeatherDisplay:10.37,2013-06-01 19:11:00,
2013-06-01 12:13:00,62.9,53.0,30.18,WSW,245,0.8,2.3,70,0.00,CLR,OVC,0.00,WeatherDisplay:10.37,2013-06-01 19:13:00,
2013-06-01 12:15:00,62.9,52.2,30.18,WSW,244,2.2,5.0,68,0.00,CLR,OVC,0.00,WeatherDisplay:10.37,2013-06-01 19:15:00,
2013-06-01 12:16:00,62.9,52.2,30.18,WSW,245,2.4,3.5,68,0.00,CLR,OVC,0.00,WeatherDisplay:10.37,2013-06-01 19:16:00,
2013-06-01 12:17:00,63.0,51.9,30.18,WSW,242,2.3,4.6,67,0.00,CLR,OVC,0.00,WeatherDisplay:10.37,2013-06-01 19:17:00,
2013-06-01 12:18:00,62.8,50.9,30.18,SSE,167,3.1,4.6,65,0.00,CLR,OVC,0.00,WeatherDisplay:10.37,2013-06-01 19:18:00,
2013-06-01 12:19:00,62.9,51.0,30.18,SSE,167,2.7,4.6,65,0.00,CLR,OVC,0.00,WeatherDisplay:10.37,2013-06-01 19:19:00,
2013-06-01 12:20:00,62.8,50.0,30.18,SW,221,3.5,5.8,63,0.00,CLR,OVC,0.00,WeatherDisplay:10.37,2013-06-01 19:20:00,
2013-06-01 12:21:00,62.7,49.9,30.18,SW,221,3.3,5.8,63,0.00,CLR,OVC,0.00,WeatherDisplay:10.37,2013-06-01 19:21:00,
2013-06-01 12:22:00,62.7,51.2,30.18,SSE,163,3.0,4.0,66,0.00,CLR,OVC,0.00,WeatherDisplay:10.37,2013-06-01 19:22:00,
2013-06-01 12:24:00,62.7,49.5,30.18,SSE,165,3.2,5.8,62,0.00,CLR,OVC,0.00,WeatherDisplay:10.37,2013-06-01 19:24:00,
2013-06-01 12:26:00,62.6,51.1,30.17,SW,234,1.0,8.1,66,0.00,CLR,OVC,0.00,WeatherDisplay:10.37,2013-06-01 19:26:00,
2013-06-01 12:27:00,62.7,49.9,30.17,SW,215,3.6,4.6,63,0.00,CLR,OVC,0.00,WeatherDisplay:10.37,2013-06-01 19:27:00,
2013-06-01 12:29:00,62.9,50.5,30.17,SSW,196,2.6,3.5,64,0.00,CLR,OVC,0.00,WeatherDisplay:10.37,2013-06-01 19:29:00,
2013-06-01 12:31:00,63.0,48.9,30.17,South,187,2.3,4.6,60,0.00,CLR,OVC,0.00,WeatherDisplay:10.37,2013-06-01 19:31:00,
2013-06-01 12:32:00,62.9,48.8,30.17,South,179,4.2,6.9,60,0.00,CLR,OVC,0.00,WeatherDisplay:10.37,2013-06-01 19:32:00,
2013-06-01 12:34:00,63.1,49.9,30.17,WSW,241,2.9,3.5,62,0.00,CLR,OVC,0.00,WeatherDisplay:10.37,2013-06-01 19:34:00,
2013-06-01 12:36:00,63.2,50.8,30.17,East,96,1.7,3.5,64,0.00,CLR,OVC,0.00,WeatherDisplay:10.37,2013-06-01 19:36:00,
2013-06-01 12:37:00,63.3,50.1,30.17,SSE,165,0.8,4.0,62,0.00,CLR,OVC,0.00,WeatherDisplay:10.37,2013-06-01 19:37:00,
2013-06-01 12:39:00,63.8,51.4,30.17,SW,235,3.8,5.0,64,0.00,CLR,OVC,0.00,WeatherDisplay:10.37,2013-06-01 19:39:00,
2013-06-01 12:41:00,64.1,49.5,30.17,SW,235,2.1,4.6,59,0.00,CLR,OVC,0.00,WeatherDisplay:10.37,2013-06-01 19:41:00,
2013-06-01 12:42:00,64.2,49.1,30.17,WSW,237,2.6,3.5,58,0.00,CLR,OVC,0.00,WeatherDisplay:10.37,2013-06-01 19:42:00,
2013-06-01 12:43:00,64.3,48.7,30.17,SSW,203,3.7,5.0,57,0.00,CLR,OVC,0.00,WeatherDisplay:10.37,2013-06-01 19:43:00,
2013-06-01 12:44:00,64.3,48.7,30.17,South,188,3.0,3.5,57,0.00,CLR,OVC,0.00,WeatherDisplay:10.37,2013-06-01 19:44:00,
2013-06-01 12:46:00,64.4,47.9,30.16,SW,234,2.4,5.0,55,0.00,CLR,OVC,0.00,WeatherDisplay:10.37,2013-06-01 19:46:00,
2013-06-01 12:47:00,64.4,46.9,30.16,SW,227,3.3,3.5,53,0.00,CLR,OVC,0.00,WeatherDisplay:10.37,2013-06-01 19:47:00,
2013-06-01 12:48:00,64.1,47.1,30.17,SW,234,3.0,4.6,54,0.00,CLR,OVC,0.00,WeatherDisplay:10.37,2013-06-01 19:48:00,
2013-06-01 12:49:00,64.1,49.0,30.16,SW,229,0.2,2.3,58,0.00,CLR,OVC,0.00,WeatherDisplay:10.37,2013-06-01 19:49:00,
2013-06-01 12:51:00,64.2,49.1,30.16,SW,228,1.4,3.5,58,0.00,CLR,OVC,0.00,WeatherDisplay:10.37,2013-06-01 19:51:00,
2013-06-01 12:52:00,64.3,48.7,30.16,SW,228,1.5,3.5,57,0.00,CLR,OVC,0.00,WeatherDisplay:10.37,2013-06-01 19:52:00,
2013-06-01 12:53:00,64.4,49.3,30.17,SE,142,0.5,2.3,58,0.00,CLR,OVC,0.00,WeatherDisplay:10.37,2013-06-01 19:53:00,
2013-06-01 12:55:00,64.6,50.4,30.17,South,190,0.4,2.3,60,0.00,CLR,OVC,0.00,WeatherDisplay:10.37,2013-06-01 19:55:00,
2013-06-01 12:56:00,64.8,51.5,30.16,South,190,0.0,0.0,62,0.00,CLR,OVC,0.00,WeatherDisplay:10.37,2013-06-01 19:56:00,
2013-06-01 12:57:00,65.0,50.8,30.16,WSW,244,0.8,3.5,60,0.00,CLR,OVC,0.00,WeatherDisplay:10.37,2013-06-01 19:57:00,
2013-06-01 12:58:00,65.2,51.8,30.16,WSW,244,0.0,0.0,62,0.00,CLR,OVC,0.00,WeatherDisplay:10.37,2013-06-01 19:58:00,
2013-06-01 13:00:00,65.5,52.1,30.16,WSW,244,0.0,0.0,62,0.00,CLR,OVC,0.00,WeatherDisplay:10.37,2013-06-01 20:00:00,
2013-06-01 13:01:00,65.8,52.9,30.16,WSW,244,0.5,3.5,63,0.00,CLR,OVC,0.00,WeatherDisplay:10.37,2013-06-01 20:01:00,
2013-06-01 13:02:00,66.0,52.6,30.16,SW,236,1.7,3.5,62,0.00,CLR,OVC,0.00,WeatherDisplay:10.37,2013-06-01 20:02:00,
2013-06-01 13:03:00,66.0,52.6,30.16,SW,236,1.3,3.5,62,0.00,CLR,OVC,0.00,WeatherDisplay:10.37,2013-06-01 20:03:00,
2013-06-01 13:05:00,66.0,51.7,30.16,SW,232,0.0,4.0,60,0.00,CLR,OVC,0.00,WeatherDisplay:10.37,2013-06-01 20:05:00,
2013-06-01 13:06:00,66.0,52.6,30.16,SW,227,2.9,3.5,62,0.00,CLR,OVC,0.00,WeatherDisplay:10.37,2013-06-01 20:06:00,
2013-06-01 13:08:00,65.9,52.5,30.16,WSW,246,2.1,3.5,62,0.00,CLR,OVC,0.00,WeatherDisplay:10.37,2013-06-01 20:08:00,
2013-06-01 13:09:00,65.9,52.5,30.16,WSW,246,0.9,3.5,62,0.00,CLR,OVC,0.00,WeatherDisplay:10.37,2013-06-01 20:09:00,
2013-06-01 13:10:00,65.9,52.9,30.16,WSW,246,0.4,1.2,63,0.00,CLR,OVC,0.00,WeatherDisplay:10.37,2013-06-01 20:10:00,
2013-06-01 13:12:00,65.9,55.0,30.16,North,350,0.1,1.2,68,0.00,CLR,OVC,0.00,WeatherDisplay:10.37,2013-06-01 20:12:00,
2013-06-01 13:13:00,66.0,54.3,30.16,North,350,0.1,1.2,66,0.00,CLR,OVC,0.00,WeatherDisplay:10.37,2013-06-01 20:13:00,
2013-06-01 13:14:00,66.1,54.4,30.16,West,261,0.5,1.2,66,0.00,CLR,OVC,0.00,WeatherDisplay:10.37,2013-06-01 20:14:00,
2013-06-01 13:17:00,66.4,54.3,30.16,West,261,0.0,1.0,65,0.00,CLR,OVC,0.00,WeatherDisplay:10.37,2013-06-01 20:17:00,
2013-06-01 13:19:00,66.4,53.4,30.16,WSW,249,1.1,3.5,63,0.00,CLR,OVC,0.00,WeatherDisplay:10.37,2013-06-01 20:19:00,
2013-06-01 13:22:00,66.2,53.2,30.15,WSW,238,0.1,2.0,63,0.00,CLR,OVC,0.00,WeatherDisplay:10.37,2013-06-01 20:22:00,
2013-06-01 13:23:00,66.2,53.7,30.15,WSW,238,0.5,1.2,64,0.00,CLR,OVC,0.00,WeatherDisplay:10.37,2013-06-01 20:23:00,
2013-06-01 13:24:00,66.2,54.1,30.16,WSW,238,0.0,2.3,65,0.00,CLR,OVC,0.00,WeatherDisplay:10.37,2013-06-01 20:24:00,
2013-06-01 13:28:00,66.1,52.7,30.15,WSW,242,2.2,3.5,62,0.00,CLR,OVC,0.00,WeatherDisplay:10.37,2013-06-01 20:28:00,
2013-06-01 13:29:00,66.1,54.0,30.15,WSW,242,0.0,1.2,65,0.00,CLR,OVC,0.00,WeatherDisplay:10.37,2013-06-01 20:29:00,
2013-06-01 13:33:00,65.3,52.4,30.15,SSE,162,3.8,6.9,63,0.00,CLR,OVC,0.00,WeatherDisplay:10.37,2013-06-01 20:33:00,
2013-06-01 13:34:00,65.0,52.5,30.15,SE,141,2.3,5.8,64,0.00,CLR,OVC,0.00,WeatherDisplay:10.37,2013-06-01 20:34:00,
2013-06-01 13:35:00,65.0,52.5,30.15,SE,141,1.9,5.8,64,0.00,CLR,OVC,0.00,WeatherDisplay:10.37,2013-06-01 20:35:00,
2013-06-01 13:38:00,64.7,53.5,30.15,South,175,0.0,1.2,67,0.00,CLR,OVC,0.00,WeatherDisplay:10.37,2013-06-01 20:38:00,
2013-06-01 13:39:00,64.6,53.4,30.15,South,175,0.0,1.2,67,0.00,CLR,OVC,0.00,WeatherDisplay:10.37,2013-06-01 20:39:00,
2013-06-01 13:40:00,64.7,54.7,30.15,South,175,0.0,1.2,70,0.00,CLR,OVC,0.00,WeatherDisplay:10.37,2013-06-01 20:40:00,
2013-06-01 13:43:00,65.5,53.4,30.15,SW,234,4.2,9.2,65,0.00,CLR,OVC,0.00,WeatherDisplay:10.37,2013-06-01 20:43:00,
2013-06-01 13:44:00,65.7,53.6,30.15,SW,234,3.9,9.2,65,0.00,CLR,OVC,0.00,WeatherDisplay:10.37,2013-06-01 20:44:00,
2013-06-01 13:45:00,65.8,54.1,30.15,SW,234,1.9,4.0,66,0.00,CLR,OVC,0.00,WeatherDisplay:10.37,2013-06-01 20:45:00,
2013-06-01 13:49:00,65.6,53.1,30.15,SW,220,4.2,6.9,64,0.00,CLR,OVC,0.00,WeatherDisplay:10.37,2013-06-01 20:49:00,
2013-06-01 13:50:00,65.4,53.3,30.15,SSW,207,1.5,5.8,65,0.00,CLR,OVC,0.00,WeatherDisplay:10.37,2013-06-01 20:50:00,
2013-06-01 13:54:00,65.4,54.6,30.15,WSW,242,0.0,1.2,68,0.00,CLR,OVC,0.00,WeatherDisplay:10.37,2013-06-01 20:54:00,
2013-06-01 13:55:00,65.4,54.6,30.15,WSW,242,1.5,1.5,68,0.00,CLR,OVC,0.00,WeatherDisplay:10.37,2013-06-01 20:55:00,
2013-06-01 13:56:00,65.4,53.3,30.15,WSW,243,1.9,3.5,65,0.00,CLR,OVC,0.00,WeatherDisplay:10.37,2013-06-01 20:56:00,
2013-06-01 13:57:00,65.5,53.4,30.15,WSW,243,0.0,3.5,65,0.00,CLR,OVC,0.00,WeatherDisplay:10.37,2013-06-01 20:57:00,
2013-06-01 13:59:00,65.7,53.2,30.15,SW,219,7.0,10.4,64,0.00,CLR,OVC,0.00,WeatherDisplay:10.37,2013-06-01 20:59:00,
2013-06-01 14:00:00,65.6,53.1,30.15,SW,219,6.7,10.4,64,0.00,CLR,OVC,0.00,WeatherDisplay:10.37,2013-06-01 21:00:00,
2013-06-01 14:01:00,65.6,53.5,30.15,WSW,247,2.8,9.2,65,0.00,CLR,OVC,0.00,WeatherDisplay:10.37,2013-06-01 21:01:00,
2013-06-01 14:02:00,65.5,53.4,30.15,WSW,247,0.6,4.6,65,0.00,CLR,OVC,0.00,WeatherDisplay:10.37,2013-06-01 21:02:00,
2013-06-01 14:05:00,65.6,53.1,30.15,WSW,239,0.2,3.5,64,0.00,CLR,OVC,0.00,WeatherDisplay:10.37,2013-06-01 21:05:00,
2013-06-01 14:06:00,65.7,52.8,30.15,WSW,240,3.3,6.9,63,0.00,CLR,OVC,0.00,WeatherDisplay:10.37,2013-06-01 21:06:00,
2013-06-01 14:07:00,65.7,52.8,30.15,WSW,240,2.9,6.9,63,0.00,CLR,OVC,0.00,WeatherDisplay:10.37,2013-06-01 21:07:00,
2013-06-01 14:10:00,65.4,52.0,30.15,WSW,238,2.4,4.6,62,0.00,CLR,OVC,0.00,WeatherDisplay:10.37,2013-06-01 21:10:00,
2013-06-01 14:11:00,65.4,52.5,30.15,WSW,240,1.6,5.0,63,0.00,CLR,OVC,0.00,WeatherDisplay:10.37,2013-06-01 21:11:00,
2013-06-01 14:12:00,65.3,52.8,30.15,WSW,243,2.7,4.6,64,0.00,CLR,OVC,0.00,WeatherDisplay:10.37,2013-06-01 21:12:00,
2013-06-01 14:15:00,65.1,51.3,30.15,WSW,240,4.6,6.9,61,0.00,CLR,OVC,0.00,WeatherDisplay:10.37,2013-06-01 21:15:00,
2013-06-01 14:16:00,65.1,51.8,30.15,SW,232,4.9,8.1,62,0.00,CLR,OVC,0.00,WeatherDisplay:10.37,2013-06-01 21:16:00,
2013-06-01 14:17:00,65.0,51.7,30.15,WSW,245,3.3,8.1,62,0.00,CLR,OVC,0.00,WeatherDisplay:10.37,2013-06-01 21:17:00,
2013-06-01 14:20:00,65.0,52.9,30.15,WSW,245,0.0,0.0,65,0.00,CLR,OVC,0.00,WeatherDisplay:10.37,2013-06-01 21:20:00,
2013-06-01 14:21:00,65.1,53.0,30.15,WSW,244,0.7,3.5,65,0.00,CLR,OVC,0.00,WeatherDisplay:10.37,2013-06-01 21:21:00,
2013-06-01 14:22:00,65.2,53.6,30.15,WSW,248,3.0,3.5,66,0.00,CLR,OVC,0.00,WeatherDisplay:10.37,2013-06-01 21:22:00,
2013-06-01 14:25:00,65.5,53.0,30.15,WSW,244,1.8,5.0,64,0.00,CLR,OVC,0.00,WeatherDisplay:10.37,2013-06-01 21:25:00,
2013-06-01 14:26:00,65.6,52.2,30.15,WSW,244,0.6,4.6,62,0.00,CLR,OVC,0.00,WeatherDisplay:10.37,2013-06-01 21:26:00,
2013-06-01 14:27:00,65.7,52.8,30.14,WSW,244,0.9,3.5,63,0.00,CLR,OVC,0.00,WeatherDisplay:10.37,2013-06-01 21:27:00,
2013-06-01 14:28:00,65.7,51.9,30.14,WSW,244,2.6,3.5,61,0.00,CLR,OVC,0.00,WeatherDisplay:10.37,2013-06-01 21:28:00,
2013-06-01 14:30:00,65.7,52.3,30.14,WSW,244,0.0,1.2,62,0.00,CLR,OVC,0.00,WeatherDisplay:10.37,2013-06-01 21:30:00,
2013-06-01 14:31:00,65.8,52.4,30.14,WSW,244,0.7,3.0,62,0.00,CLR,OVC,0.00,WeatherDisplay:10.37,2013-06-01 21:31:00,
2013-06-01 14:32:00,65.9,51.6,30.14,WSW,244,0.0,0.0,60,0.00,CLR,OVC,0.00,WeatherDisplay:10.37,2013-06-01 21:32:00,
2013-06-01 14:33:00,65.9,51.2,30.14,WSW,244,0.1,0.0,59,0.00,CLR,OVC,0.00,WeatherDisplay:10.37,2013-06-01 21:33:00,
2013-06-01 14:35:00,66.3,51.1,30.14,West,260,4.1,5.8,58,0.00,CLR,OVC,0.00,WeatherDisplay:10.37,2013-06-01 21:35:00,
2013-06-01 14:36:00,66.3,51.1,30.14,West,260,2.6,5.8,58,0.00,CLR,OVC,0.00,WeatherDisplay:10.37,2013-06-01 21:36:00,
2013-06-01 14:37:00,66.4,52.5,30.14,West,260,0.0,0.0,61,0.00,CLR,OVC,0.00,WeatherDisplay:10.37,2013-06-01 21:37:00,
2013-06-01 14:38:00,66.4,51.2,30.14,West,260,0.0,0.0,58,0.00,CLR,OVC,0.00,WeatherDisplay:10.37,2013-06-01 21:38:00,
2013-06-01 14:40:00,66.6,52.3,30.14,SW,226,1.5,6.9,60,0.00,CLR,OVC,0.00,WeatherDisplay:10.37,2013-06-01 21:40:00,
2013-06-01 14:41:00,66.6,52.3,30.14,SW,230,1.0,6.9,60,0.00,CLR,OVC,0.00,WeatherDisplay:10.37,2013-06-01 21:41:00,
2013-06-01 14:43:00,66.7,52.8,30.14,SW,235,0.5,3.0,61,0.00,CLR,OVC,0.00,WeatherDisplay:10.37,2013-06-01 21:43:00,
2013-06-01 14:44:00,66.7,51.0,30.14,WSW,246,2.4,4.6,57,0.00,CLR,OVC,0.00,WeatherDisplay:10.37,2013-06-01 21:44:00,
2013-06-01 14:46:00,66.7,51.0,30.14,WSW,246,0.0,0.0,57,0.00,CLR,OVC,0.00,WeatherDisplay:10.37,2013-06-01 21:46:00,
2013-06-01 14:48:00,66.8,53.4,30.14,East,86,0.6,1.2,62,0.00,CLR,OVC,0.00,WeatherDisplay:10.37,2013-06-01 21:48:00,
2013-06-01 14:49:00,67.0,52.2,30.14,SW,227,1.3,3.5,59,0.00,CLR,OVC,0.00,WeatherDisplay:10.37,2013-06-01 21:49:00,
2013-06-01 14:51:00,67.2,52.4,30.14,SW,232,2.7,5.8,59,0.00,CLR,OVC,0.00,WeatherDisplay:10.37,2013-06-01 21:51:00,
2013-06-01 14:53:00,67.4,50.7,30.14,NE,36,0.8,1.2,55,0.00,CLR,OVC,0.00,WeatherDisplay:10.37,2013-06-01 21:53:00,
2013-06-01 14:54:00,67.4,50.7,30.13,SW,217,1.0,4.0,55,0.00,CLR,OVC,0.00,WeatherDisplay:10.37,2013-06-01 21:54:00,
2013-06-01 14:55:00,67.5,50.3,30.13,SW,232,2.7,5.8,54,0.00,CLR,OVC,0.00,WeatherDisplay:10.37,2013-06-01 21:55:00,
2013-06-01 14:56:00,67.5,50.8,30.13,SW,217,4.1,6.9,55,0.00,CLR,OVC,0.00,WeatherDisplay:10.37,2013-06-01 21:56:00,
2013-06-01 14:57:00,67.4,50.7,30.14,SW,217,1.0,3.5,55,0.00,CLR,OVC,0.00,WeatherDisplay:10.37,2013-06-01 21:57:00,
2013-06-01 14:58:00,67.4,51.2,30.13,SW,217,0.1,1.2,56,0.00,CLR,OVC,0.00,WeatherDisplay:10.37,2013-06-01 21:58:00,
2013-06-01 14:59:00,67.4,51.6,30.13,WSW,252,2.4,8.0,57,0.00,CLR,OVC,0.00,WeatherDisplay:10.37,2013-06-01 21:59:00,
2013-06-01 15:00:00,67.5,52.2,30.13,WSW,252,2.6,8.1,58,0.00,CLR,OVC,0.00,WeatherDisplay:10.37,2013-06-01 22:00:00,
2013-06-01 15:01:00,67.6,52.3,30.13,WSW,252,0.1,3.5,58,0.00,CLR,OVC,0.00,WeatherDisplay:10.37,2013-06-01 22:01:00,
2013-06-01 15:02:00,67.6,53.7,30.13,WSW,252,0.9,3.0,61,0.00,CLR,OVC,0.00,WeatherDisplay:10.37,2013-06-01 22:02:00,
2013-06-01 15:03:00,67.7,52.4,30.13,WSW,252,1.1,4.6,58,0.00,CLR,OVC,0.00,WeatherDisplay:10.37,2013-06-01 22:03:00,
2013-06-01 15:04:00,67.8,52.5,30.13,NW,304,0.0,4.6,58,0.00,CLR,OVC,0.00,WeatherDisplay:10.37,2013-06-01 22:04:00,
2013-06-01 15:05:00,67.8,52.5,30.13,North,355,1.3,3.5,58,0.00,CLR,OVC,0.00,WeatherDisplay:10.37,2013-06-01 22:05:00,
2013-06-01 15:07:00,68.0,52.7,30.13,NNE,23,0.1,4.6,58,0.00,CLR,OVC,0.00,WeatherDisplay:10.37,2013-06-01 22:07:00,
2013-06-01 15:08:00,68.0,53.1,30.13,ESE,110,0.2,2.3,59,0.00,CLR,OVC,0.00,WeatherDisplay:10.37,2013-06-01 22:08:00,
2013-06-01 15:09:00,68.2,52.9,30.13,ESE,117,0.0,1.2,58,0.00,CLR,OVC,0.00,WeatherDisplay:10.37,2013-06-01 22:09:00,
2013-06-01 15:10:00,68.3,53.9,30.13,SW,229,1.2,3.5,60,0.00,CLR,OVC,0.00,WeatherDisplay:10.37,2013-06-01 22:10:00,
2013-06-01 15:12:00,68.4,51.6,30.12,WSW,237,3.8,6.9,55,0.00,CLR,OVC,0.00,WeatherDisplay:10.37,2013-06-01 22:12:00,
2013-06-01 15:13:00,68.3,51.0,30.12,SW,235,3.9,6.9,54,0.00,CLR,OVC,0.00,WeatherDisplay:10.37,2013-06-01 22:13:00,
2013-06-01 15:15:00,68.2,52.9,30.13,West,273,0.1,1.2,58,0.00,CLR,OVC,0.00,WeatherDisplay:10.37,2013-06-01 22:15:00,
2013-06-01 15:18:00,68.2,52.4,30.12,WSW,252,0.1,1.0,57,0.00,CLR,OVC,0.00,WeatherDisplay:10.37,2013-06-01 22:18:00,
2013-06-01 15:19:00,68.2,51.4,30.12,SSW,213,1.3,3.5,55,0.00,CLR,OVC,0.00,WeatherDisplay:10.37,2013-06-01 22:19:00,
2013-06-01 15:20:00,68.2,52.4,30.12,WSW,238,0.0,6.0,57,0.00,CLR,OVC,0.00,WeatherDisplay:10.37,2013-06-01 22:20:00,
2013-06-01 15:21:00,68.3,52.5,30.12,SW,221,0.3,2.3,57,0.00,CLR,OVC,0.00,WeatherDisplay:10.37,2013-06-01 22:21:00,
2013-06-01 15:23:00,68.4,52.6,30.12,WSW,247,1.1,4.6,57,0.00,CLR,OVC,0.00,WeatherDisplay:10.37,2013-06-01 22:23:00,
2013-06-01 15:24:00,68.5,52.2,30.12,WSW,247,0.9,3.5,56,0.00,CLR,OVC,0.00,WeatherDisplay:10.37,2013-06-01 22:24:00,
2013-06-01 15:26:00,68.5,51.7,30.12,WSW,244,2.9,4.6,55,0.00,CLR,OVC,0.00,WeatherDisplay:10.37,2013-06-01 22:26:00,
2013-06-01 15:27:00,68.4,51.6,30.12,WSW,248,5.3,6.9,55,0.00,CLR,OVC,0.00,WeatherDisplay:10.37,2013-06-01 22:27:00,
2013-06-01 15:28:00,68.3,51.5,30.12,WSW,248,2.3,6.9,55,0.00,CLR,OVC,0.00,WeatherDisplay:10.37,2013-06-01 22:28:00,
2013-06-01 15:29:00,68.1,52.3,30.12,WSW,248,0.2,1.2,57,0.00,CLR,OVC,0.00,WeatherDisplay:10.37,2013-06-01 22:29:00,
2013-06-01 15:31:00,68.1,51.8,30.12,WSW,249,0.0,0.0,56,0.00,CLR,OVC,0.00,WeatherDisplay:10.37,2013-06-01 22:31:00,
2013-06-01 15:32:00,68.1,51.8,30.12,WSW,249,0.2,1.2,56,0.00,CLR,OVC,0.00,WeatherDisplay:10.37,2013-06-01 22:32:00,
2013-06-01 15:33:00,68.1,52.3,30.12,SW,236,1.8,5.0,57,0.00,CLR,OVC,0.00,WeatherDisplay:10.37,2013-06-01 22:33:00,
2013-06-01 15:35:00,68.1,52.8,30.12,West,261,0.0,4.6,58,0.00,CLR,OVC,0.00,WeatherDisplay:10.37,2013-06-01 22:35:00,
2013-06-01 15:37:00,68.2,51.4,30.12,WSW,252,4.1,4.1,55,0.00,CLR,OVC,0.00,WeatherDisplay:10.37,2013-06-01 22:37:00,
2013-06-01 15:38:00,68.1,51.3,30.12,WSW,250,1.7,3.5,55,0.00,CLR,OVC,0.00,WeatherDisplay:10.37,2013-06-01 22:38:00,
2013-06-01 15:40:00,68.1,51.8,30.12,WSW,244,0.4,3.5,56,0.00,CLR,OVC,0.00,WeatherDisplay:10.37,2013-06-01 22:40:00,
2013-06-01 15:42:00,68.2,52.4,30.12,SW,236,0.9,3.5,57,0.00,CLR,OVC,0.00,WeatherDisplay:10.37,2013-06-01 22:42:00,
2013-06-01 15:43:00,68.2,52.4,30.12,WSW,249,0.3,1.0,57,0.00,CLR,OVC,0.00,WeatherDisplay:10.37,2013-06-01 22:43:00,
2013-06-01 15:45:00,68.3,52.9,30.12,WSW,249,0.6,2.3,58,0.00,CLR,OVC,0.00,WeatherDisplay:10.37,2013-06-01 22:45:00,
2013-06-01 15:47:00,68.3,52.5,30.12,WSW,249,0.0,1.0,57,0.00,CLR,OVC,0.00,WeatherDisplay:10.37,2013-06-01 22:47:00,
2013-06-01 15:48:00,68.4,53.0,30.12,WSW,249,1.5,2.0,58,0.00,CLR,OVC,0.00,WeatherDisplay:10.37,2013-06-01 22:48:00,
2013-06-01 15:49:00,68.5,53.1,30.12,WSW,238,4.1,7.0,58,0.00,CLR,OVC,0.00,WeatherDisplay:10.37,2013-06-01 22:49:00,
2013-06-01 15:51:00,68.3,53.4,30.12,SW,234,1.3,4.6,59,0.00,CLR,OVC,0.00,WeatherDisplay:10.37,2013-06-01 22:51:00,
2013-06-01 15:52:00,68.3,52.9,30.12,WSW,242,0.4,1.2,58,0.00,CLR,OVC,0.00,WeatherDisplay:10.37,2013-06-01 22:52:00,
2013-06-01 15:53:00,68.3,54.3,30.12,WSW,242,0.3,2.3,61,0.00,CLR,OVC,0.00,WeatherDisplay:10.37,2013-06-01 22:53:00,
2013-06-01 15:54:00,68.3,54.3,30.12,WSW,242,0.0,2.3,61,0.00,CLR,OVC,0.00,WeatherDisplay:10.37,2013-06-01 22:54:00,
2013-06-01 15:56:00,68.4,53.5,30.12,WSW,242,0.3,2.3,59,0.00,CLR,OVC,0.00,WeatherDisplay:10.37,2013-06-01 22:56:00,
2013-06-01 15:57:00,68.4,54.4,30.11,WSW,239,1.3,1.3,61,0.00,CLR,OVC,0.00,WeatherDisplay:10.37,2013-06-01 22:57:00,
2013-06-01 15:58:00,68.5,55.0,30.11,WSW,239,0.2,2.3,62,0.00,CLR,OVC,0.00,WeatherDisplay:10.37,2013-06-01 22:58:00,
2013-06-01 15:59:00,68.5,53.1,30.11,WSW,239,0.3,2.3,58,0.00,CLR,OVC,0.00,WeatherDisplay:10.37,2013-06-01 22:59:00,
2013-06-01 16:01:00,68.6,53.7,30.11,WSW,239,0.9,3.5,59,0.00,CLR,OVC,0.00,WeatherDisplay:10.37,2013-06-01 23:01:00,
2013-06-01 16:03:00,68.6,54.2,30.11,WSW,252,4.4,5.8,60,0.00,CLR,OVC,0.00,WeatherDisplay:10.37,2013-06-01 23:03:00,
2013-06-01 16:04:00,68.6,53.7,30.11,WSW,247,2.0,5.8,59,0.00,CLR,OVC,0.00,WeatherDisplay:10.37,2013-06-01 23:04:00,
2013-06-01 16:06:00,68.4,52.6,30.11,SW,229,1.8,3.5,57,0.00,CLR,OVC,0.00,WeatherDisplay:10.37,2013-06-01 23:06:00,
2013-06-01 16:08:00,68.3,52.5,30.11,SW,236,0.6,2.3,57,0.00,CLR,OVC,0.00,WeatherDisplay:10.37,2013-06-01 23:08:00,
2013-06-01 16:09:00,68.3,52.5,30.11,SW,236,0.0,2.3,57,0.00,CLR,OVC,0.00,WeatherDisplay:10.37,2013-06-01 23:09:00,
2013-06-01 16:11:00,68.2,52.9,30.11,West,262,0.0,5.8,58,0.00,CLR,OVC,0.00,WeatherDisplay:10.37,2013-06-01 23:11:00,
2013-06-01 16:13:00,68.2,52.4,30.11,West,275,0.0,0.0,57,0.00,CLR,OVC,0.00,WeatherDisplay:10.37,2013-06-01 23:13:00,
2013-06-01 16:14:00,68.2,52.9,30.11,West,275,0.1,1.2,58,0.00,CLR,OVC,0.00,WeatherDisplay:10.37,2013-06-01 23:14:00,
2013-06-01 16:15:00,68.2,52.9,30.11,West,275,0.1,1.2,58,0.00,CLR,OVC,0.00,WeatherDisplay:10.37,2013-06-01 23:15:00,
2013-06-01 16:17:00,68.2,52.9,30.11,West,263,0.3,3.5,58,0.00,CLR,OVC,0.00,WeatherDisplay:10.37,2013-06-01 23:17:00,
2013-06-01 16:19:00,68.2,53.3,30.11,WSW,255,1.6,2.3,59,0.00,CLR,OVC,0.00,WeatherDisplay:10.37,2013-06-01 23:19:00,
2013-06-01 16:20:00,68.2,52.9,30.11,WSW,255,0.2,4.6,58,0.00,CLR,OVC,0.00,WeatherDisplay:10.37,2013-06-01 23:20:00,
2013-06-01 16:22:00,68.2,53.3,30.11,WSW,255,0.5,0.0,59,0.00,CLR,OVC,0.00,WeatherDisplay:10.37,2013-06-01 23:22:00,
2013-06-01 16:24:00,68.1,52.8,30.11,WSW,254,3.5,6.9,58,0.00,CLR,OVC,0.00,WeatherDisplay:10.37,2013-06-01 23:24:00,
2013-06-01 16:25:00,68.1,53.2,30.11,WSW,254,0.4,6.9,59,0.00,CLR,OVC,0.00,WeatherDisplay:10.37,2013-06-01 23:25:00,
2013-06-01 16:27:00,68.1,53.7,30.11,SW,234,2.9,4.6,60,0.00,CLR,OVC,0.00,WeatherDisplay:10.37,2013-06-01 23:27:00,
2013-06-01 16:30:00,67.9,53.5,30.11,SW,236,1.6,3.5,60,0.00,CLR,OVC,0.00,WeatherDisplay:10.37,2013-06-01 23:30:00,
2013-06-01 16:32:00,67.8,53.4,30.11,WSW,237,1.0,4.6,60,0.00,CLR,OVC,0.00,WeatherDisplay:10.37,2013-06-01 23:32:00,
2013-06-01 16:35:00,67.6,53.2,30.11,SW,234,0.1,5.8,60,0.00,CLR,OVC,0.00,WeatherDisplay:10.37,2013-06-01 23:35:00,
2013-06-01 16:37:00,67.7,54.6,30.11,SW,235,0.7,3.5,63,0.00,CLR,OVC,0.00,WeatherDisplay:10.37,2013-06-01 23:37:00,
2013-06-01 16:40:00,67.8,53.4,30.10,WSW,251,3.1,4.6,60,0.00,CLR,OVC,0.00,WeatherDisplay:10.37,2013-06-01 23:40:00,
2013-06-01 16:41:00,67.9,54.0,30.10,WSW,251,0.2,4.6,61,0.00,CLR,OVC,0.00,WeatherDisplay:10.37,2013-06-01 23:41:00,
2013-06-01 16:43:00,67.8,54.3,30.10,WSW,251,1.6,3.5,62,0.00,CLR,OVC,0.00,WeatherDisplay:10.37,2013-06-01 23:43:00,
2013-06-01 16:45:00,67.8,54.3,30.10,WSW,250,0.0,4.0,62,0.00,CLR,OVC,0.00,WeatherDisplay:10.37,2013-06-01 23:45:00,
2013-06-01 16:46:00,67.9,54.0,30.10,WSW,256,0.4,0.0,61,0.00,CLR,OVC,0.00,WeatherDisplay:10.37,2013-06-01 23:46:00,
2013-06-01 16:48:00,67.9,54.0,30.10,WSW,256,0.1,1.2,61,0.00,CLR,OVC,0.00,WeatherDisplay:10.37,2013-06-01 23:48:00,
2013-06-01 16:49:00,67.9,54.4,30.10,WSW,256,0.1,1.2,62,0.00,CLR,OVC,0.00,WeatherDisplay:10.37,2013-06-01 23:49:00,
2013-06-01 16:50:00,67.9,54.0,30.10,WSW,256,0.5,3.5,61,0.00,CLR,OVC,0.00,WeatherDisplay:10.37,2013-06-01 23:50:00,
2013-06-01 16:51:00,67.9,54.0,30.10,WSW,256,0.7,3.5,61,0.00,CLR,OVC,0.00,WeatherDisplay:10.37,2013-06-01 23:51:00,
2013-06-01 16:53:00,67.8,53.9,30.10,SW,234,0.3,3.5,61,0.00,CLR,OVC,0.00,WeatherDisplay:10.37,2013-06-01 23:53:00,
2013-06-01 16:54:00,67.8,53.9,30.10,SW,234,0.0,3.5,61,0.00,CLR,OVC,0.00,WeatherDisplay:10.37,2013-06-01 23:54:00,
2013-06-01 16:55:00,67.7,53.3,30.10,SW,234,0.0,0.0,60,0.00,CLR,OVC,0.00,WeatherDisplay:10.37,2013-06-01 23:55:00,
2013-06-01 16:56:00,67.7,53.3,30.10,SW,234,0.0,0.0,60,0.00,CLR,OVC,0.00,WeatherDisplay:10.37,2013-06-01 23:56:00,
2013-06-01 16:58:00,67.8,53.9,30.10,SW,234,0.0,1.2,61,0.00,CLR,OVC,0.00,WeatherDisplay:10.37,2013-06-01 23:58:00,
2013-06-01 16:59:00,67.7,54.2,30.10,WSW,238,1.1,3.5,62,0.00,CLR,OVC,0.00,WeatherDisplay:10.37,2013-06-01 23:59:00,
2013-06-01 17:00:00,67.8,53.4,30.10,WSW,242,1.6,3.5,60,0.00,CLR,OVC,0.00,WeatherDisplay:10.37,2013-06-02 00:00:00,
2013-06-01 17:01:00,67.8,53.4,30.10,WSW,242,1.1,3.5,60,0.00,CLR,OVC,0.00,WeatherDisplay:10.37,2013-06-02 00:01:00,
2013-06-01 17:02:00,67.7,53.3,30.10,WSW,241,1.2,3.5,60,0.00,CLR,OVC,0.00,WeatherDisplay:10.37,2013-06-02 00:02:00,
2013-06-01 17:03:00,67.7,53.8,30.10,WSW,241,0.0,1.2,61,0.00,CLR,OVC,0.00,WeatherDisplay:10.37,2013-06-02 00:03:00,
2013-06-01 17:04:00,67.7,53.8,30.09,WSW,251,2.9,7.0,61,0.00,CLR,OVC,0.00,WeatherDisplay:10.37,2013-06-02 00:04:00,
2013-06-01 17:06:00,67.6,53.7,30.10,WSW,246,3.9,8.1,61,0.00,CLR,OVC,0.00,WeatherDisplay:10.37,2013-06-02 00:06:00,
2013-06-01 17:07:00,67.6,53.7,30.09,WSW,247,0.5,4.6,61,0.00,CLR,OVC,0.00,WeatherDisplay:10.37,2013-06-02 00:07:00,
2013-06-01 17:09:00,67.5,54.5,30.09,WSW,237,4.0,4.6,63,0.00,CLR,OVC,0.00,WeatherDisplay:10.37,2013-06-02 00:09:00,
2013-06-01 17:10:00,67.4,53.9,30.09,WSW,246,0.1,4.6,62,0.00,CLR,OVC,0.00,WeatherDisplay:10.37,2013-06-02 00:10:00,
2013-06-01 17:11:00,67.4,54.4,30.09,WSW,244,2.2,3.5,63,0.00,CLR,OVC,0.00,WeatherDisplay:10.37,2013-06-02 00:11:00,
2013-06-01 17:12:00,67.3,54.7,30.09,WNW,285,0.7,3.5,64,0.00,CLR,OVC,0.00,WeatherDisplay:10.37,2013-06-02 00:12:00,
2013-06-01 17:14:00,67.4,54.4,30.09,West,259,1.1,3.5,63,0.00,CLR,OVC,0.00,WeatherDisplay:10.37,2013-06-02 00:14:00,
2013-06-01 17:15:00,67.4,54.4,30.09,West,265,1.7,3.5,63,0.00,CLR,OVC,0.00,WeatherDisplay:10.37,2013-06-02 00:15:00,
2013-06-01 17:16:00,67.4,54.4,30.09,West,264,0.1,1.2,63,0.00,CLR,OVC,0.00,WeatherDisplay:10.37,2013-06-02 00:16:00,
2013-06-01 17:18:00,67.4,54.8,30.09,WSW,257,0.2,2.3,64,0.00,CLR,OVC,0.00,WeatherDisplay:10.37,2013-06-02 00:18:00,
2013-06-01 17:20:00,67.4,54.8,30.09,WSW,257,0.1,1.0,64,0.00,CLR,OVC,0.00,WeatherDisplay:10.37,2013-06-02 00:20:00,
2013-06-01 17:22:00,67.3,54.3,30.09,WSW,249,0.4,6.9,63,0.00,CLR,OVC,0.00,WeatherDisplay:10.37,2013-06-02 00:22:00,
2013-06-01 17:23:00,67.3,54.3,30.09,West,269,2.3,4.6,63,0.00,CLR,OVC,0.00,WeatherDisplay:10.37,2013-06-02 00:23:00,
2013-06-01 17:25:00,67.3,54.3,30.09,WSW,256,1.0,7.0,63,0.00,CLR,OVC,0.00,WeatherDisplay:10.37,2013-06-02 00:25:00,
2013-06-01 17:26:00,67.3,54.3,30.09,WSW,248,0.4,3.5,63,0.00,CLR,OVC,0.00,WeatherDisplay:10.37,2013-06-02 00:26:00,
2013-06-01 17:27:00,67.4,54.4,30.09,WSW,248,0.5,3.5,63,0.00,CLR,OVC,0.00,WeatherDisplay:10.37,2013-06-02 00:27:00,
2013-06-01 17:28:00,67.4,54.8,30.09,WSW,251,1.1,6.0,64,0.00,CLR,OVC,0.00,WeatherDisplay:10.37,2013-06-02 00:28:00,
2013-06-01 17:30:00,67.4,54.4,30.09,WSW,252,0.0,0.0,63,0.00,CLR,OVC,0.00,WeatherDisplay:10.37,2013-06-02 00:30:00,
2013-06-01 17:31:00,67.4,54.8,30.09,WSW,252,0.3,2.3,64,0.00,CLR,OVC,0.00,WeatherDisplay:10.37,2013-06-02 00:31:00,
2013-06-01 17:32:00,67.4,54.8,30.09,WSW,252,0.5,3.0,64,0.00,CLR,OVC,0.00,WeatherDisplay:10.37,2013-06-02 00:32:00,
2013-06-01 17:33:00,67.5,55.3,30.09,WSW,240,1.9,4.6,65,0.00,CLR,OVC,0.00,WeatherDisplay:10.37,2013-06-02 00:33:00,
2013-06-01 17:35:00,67.5,55.3,30.09,WSW,248,0.0,4.6,65,0.00,CLR,OVC,0.00,WeatherDisplay:10.37,2013-06-02 00:35:00,
2013-06-01 17:36:00,67.5,55.3,30.09,WSW,252,0.4,3.5,65,0.00,CLR,OVC,0.00,WeatherDisplay:10.37,2013-06-02 00:36:00,
2013-06-01 17:37:00,67.5,55.3,30.09,WSW,247,1.7,4.6,65,0.00,CLR,OVC,0.00,WeatherDisplay:10.37,2013-06-02 00:37:00,
2013-06-01 17:40:00,67.5,54.9,30.09,West,263,1.6,4.0,64,0.00,CLR,OVC,0.00,WeatherDisplay:10.37,2013-06-02 00:40:00,
2013-06-01 17:41:00,67.4,54.8,30.09,West,259,0.5,3.5,64,0.00,CLR,OVC,0.00,WeatherDisplay:10.37,2013-06-02 00:41:00,
2013-06-01 17:42:00,67.4,54.8,30.09,West,259,0.0,3.5,64,0.00,CLR,OVC,0.00,WeatherDisplay:10.37,2013-06-02 00:42:00,
2013-06-01 17:45:00,67.3,54.7,30.09,WSW,246,0.7,3.5,64,0.00,CLR,OVC,0.00,WeatherDisplay:10.37,2013-06-02 00:45:00,
2013-06-01 17:47:00,67.3,54.3,30.09,WSW,248,1.5,5.8,63,0.00,CLR,OVC,0.00,WeatherDisplay:10.37,2013-06-02 00:47:00,
2013-06-01 17:51:00,67.2,54.2,30.09,West,264,2.0,3.5,63,0.00,CLR,OVC,0.00,WeatherDisplay:10.37,2013-06-02 00:51:00,
2013-06-01 17:52:00,67.2,54.6,30.09,West,263,0.0,5.8,64,0.00,CLR,OVC,0.00,WeatherDisplay:10.37,2013-06-02 00:52:00,
2013-06-01 17:53:00,67.2,54.6,30.09,WSW,248,1.4,3.5,64,0.00,CLR,OVC,0.00,WeatherDisplay:10.37,2013-06-02 00:53:00,
2013-06-01 17:56:00,67.1,54.1,30.09,WSW,248,0.3,2.3,63,0.00,CLR,OVC,0.00,WeatherDisplay:10.37,2013-06-02 00:56:00,
2013-06-01 17:57:00,67.1,54.5,30.08,WSW,249,0.0,1.0,64,0.00,CLR,OVC,0.00,WeatherDisplay:10.37,2013-06-02 00:57:00,
2013-06-01 17:58:00,67.1,54.5,30.08,WSW,249,1.6,3.0,64,0.00,CLR,OVC,0.00,WeatherDisplay:10.37,2013-06-02 00:58:00,
2013-06-01 18:01:00,67.0,54.4,30.08,WSW,242,0.0,1.2,64,0.00,CLR,OVC,0.00,WeatherDisplay:10.37,2013-06-02 01:01:00,
2013-06-01 18:02:00,67.0,54.8,30.08,WSW,242,0.6,3.5,65,0.00,CLR,OVC,0.00,WeatherDisplay:10.37,2013-06-02 01:02:00,
2013-06-01 18:03:00,66.9,54.3,30.08,WSW,238,3.2,4.6,64,0.00,CLR,OVC,0.00,WeatherDisplay:10.37,2013-06-02 01:03:00,
2013-06-01 18:04:00,66.9,53.9,30.08,SW,236,3.6,4.6,63,0.00,CLR,OVC,0.00,WeatherDisplay:10.37,2013-06-02 01:04:00,
2013-06-01 18:07:00,66.7,54.1,30.08,WSW,240,1.0,3.5,64,0.00,CLR,OVC,0.00,WeatherDisplay:10.37,2013-06-02 01:07:00,
2013-06-01 18:08:00,66.7,54.6,30.08,WSW,240,0.1,1.2,65,0.00,CLR,OVC,0.00,WeatherDisplay:10.37,2013-06-02 01:08:00,
2013-06-01 18:09:00,66.7,54.6,30.08,WSW,240,0.0,1.2,65,0.00,CLR,OVC,0.00,WeatherDisplay:10.37,2013-06-02 01:09:00,
2013-06-01 18:12:00,66.5,53.9,30.08,WSW,242,1.0,2.3,64,0.00,CLR,OVC,0.00,WeatherDisplay:10.37,2013-06-02 01:12:00,
2013-06-01 18:13:00,66.5,54.4,30.08,WSW,243,1.6,3.5,65,0.00,CLR,OVC,0.00,WeatherDisplay:10.37,2013-06-02 01:13:00,
2013-06-01 18:14:00,66.5,53.9,30.08,WSW,248,0.9,5.0,64,0.00,CLR,OVC,0.00,WeatherDisplay:10.37,2013-06-02 01:14:00,
2013-06-01 18:17:00,66.3,54.2,30.08,West,259,0.1,1.2,65,0.00,CLR,OVC,0.00,WeatherDisplay:10.37,2013-06-02 01:17:00,
2013-06-01 18:18:00,66.3,54.2,30.08,West,259,0.4,2.3,65,0.00,CLR,OVC,0.00,WeatherDisplay:10.37,2013-06-02 01:18:00,
2013-06-01 18:19:00,66.3,54.2,30.08,West,259,0.0,0.0,65,0.00,CLR,OVC,0.00,WeatherDisplay:10.37,2013-06-02 01:19:00,
2013-06-01 18:22:00,66.2,54.5,30.07,WSW,258,1.1,1.1,66,0.00,CLR,OVC,0.00,WeatherDisplay:10.37,2013-06-02 01:22:00,
2013-06-01 18:23:00,66.1,54.0,30.07,West,259,0.3,3.5,65,0.00,CLR,OVC,0.00,WeatherDisplay:10.37,2013-06-02 01:23:00,
2013-06-01 18:24:00,66.1,54.4,30.07,West,259,0.0,2.3,66,0.00,CLR,OVC,0.00,WeatherDisplay:10.37,2013-06-02 01:24:00,
2013-06-01 18:28:00,66.0,54.3,30.07,West,259,0.2,0.0,66,0.00,CLR,OVC,0.00,WeatherDisplay:10.37,2013-06-02 01:28:00,
2013-06-01 18:29:00,65.9,54.2,30.07,West,259,0.0,1.2,66,0.00,CLR,OVC,0.00,WeatherDisplay:10.37,2013-06-02 01:29:00,
2013-06-01 18:33:00,65.9,54.2,30.07,West,259,0.0,0.0,66,0.00,CLR,OVC,0.00,WeatherDisplay:10.37,2013-06-02 01:33:00,
2013-06-01 18:34:00,65.9,54.2,30.07,WSW,256,0.5,3.5,66,0.00,CLR,OVC,0.00,WeatherDisplay:10.37,2013-06-02 01:34:00,
2013-06-01 18:35:00,65.9,54.2,30.07,West,261,0.6,3.5,66,0.00,CLR,OVC,0.00,WeatherDisplay:10.37,2013-06-02 01:35:00,
2013-06-01 18:38:00,65.8,54.1,30.07,West,270,0.7,3.5,66,0.00,CLR,OVC,0.00,WeatherDisplay:10.37,2013-06-02 01:38:00,
2013-06-01 18:40:00,65.7,54.4,30.07,West,270,0.0,1.2,67,0.00,CLR,OVC,0.00,WeatherDisplay:10.37,2013-06-02 01:40:00,
2013-06-01 18:43:00,65.6,54.3,30.07,WSW,253,1.6,3.5,67,0.00,CLR,OVC,0.00,WeatherDisplay:10.37,2013-06-02 01:43:00,
2013-06-01 18:44:00,65.6,54.3,30.07,WSW,253,0.8,3.5,67,0.00,CLR,OVC,0.00,WeatherDisplay:10.37,2013-06-02 01:44:00,
2013-06-01 18:45:00,65.5,53.8,30.07,WSW,253,0.1,2.3,66,0.00,CLR,OVC,0.00,WeatherDisplay:10.37,2013-06-02 01:45:00,
2013-06-01 18:46:00,65.5,54.2,30.07,West,270,0.1,1.2,67,0.00,CLR,OVC,0.00,WeatherDisplay:10.37,2013-06-02 01:46:00,
2013-06-01 18:48:00,65.4,54.2,30.07,NNW,338,0.0,1.2,67,0.00,CLR,OVC,0.00,WeatherDisplay:10.37,2013-06-02 01:48:00,
2013-06-01 18:49:00,65.4,54.2,30.07,WSW,252,0.7,1.2,67,0.00,CLR,OVC,0.00,WeatherDisplay:10.37,2013-06-02 01:49:00,
2013-06-01 18:50:00,65.3,54.1,30.07,WSW,255,0.0,5.0,67,0.00,CLR,OVC,0.00,WeatherDisplay:10.37,2013-06-02 01:50:00,
2013-06-01 18:51:00,65.3,54.5,30.07,WSW,252,0.1,1.2,68,0.00,CLR,OVC,0.00,WeatherDisplay:10.37,2013-06-02 01:51:00,
2013-06-01 18:53:00,65.2,54.4,30.07,WSW,252,0.1,1.2,68,0.00,CLR,OVC,0.00,WeatherDisplay:10.37,2013-06-02 01:53:00,
2013-06-01 18:54:00,65.1,54.3,30.07,WSW,252,0.1,1.2,68,0.00,CLR,OVC,0.00,WeatherDisplay:10.37,2013-06-02 01:54:00,
2013-06-01 18:55:00,65.0,54.2,30.07,WSW,252,0.1,1.2,68,0.00,CLR,OVC,0.00,WeatherDisplay:10.37,2013-06-02 01:55:00,
2013-06-01 18:57:00,64.9,54.1,30.07,WSW,248,0.6,3.5,68,0.00,CLR,OVC,0.00,WeatherDisplay:10.37,2013-06-02 01:57:00,
2013-06-01 18:58:00,64.8,53.6,30.07,WSW,248,0.1,0.0,67,0.00,CLR,OVC,0.00,WeatherDisplay:10.37,2013-06-02 01:58:00,
2013-06-01 18:59:00,64.7,53.5,30.07,West,277,1.5,4.6,67,0.00,CLR,OVC,0.00,WeatherDisplay:10.37,2013-06-02 01:59:00,
2013-06-01 19:00:00,64.7,53.5,30.07,West,261,1.0,5.0,67,0.00,CLR,OVC,0.00,WeatherDisplay:10.37,2013-06-02 02:00:00,
2013-06-01 19:02:00,64.5,53.3,30.07,West,271,0.0,0.0,67,0.00,CLR,OVC,0.00,WeatherDisplay:10.37,2013-06-02 02:02:00,
2013-06-01 19:04:00,64.5,53.7,30.07,West,271,0.0,0.0,68,0.00,CLR,OVC,0.00,WeatherDisplay:10.37,2013-06-02 02:04:00,
2013-06-01 19:05:00,64.4,53.6,30.07,West,271,0.3,0.0,68,0.00,CLR,OVC,0.00,WeatherDisplay:10.37,2013-06-02 02:05:00,
2013-06-01 19:07:00,64.3,53.5,30.07,WSW,245,0.3,3.5,68,0.00,CLR,OVC,0.00,WeatherDisplay:10.37,2013-06-02 02:07:00,
2013-06-01 19:09:00,64.2,53.4,30.07,WSW,245,0.1,1.2,68,0.00,CLR,OVC,0.00,WeatherDisplay:10.37,2013-06-02 02:09:00,
2013-06-01 19:10:00,64.1,53.3,30.07,WSW,245,0.0,0.0,68,0.00,CLR,OVC,0.00,WeatherDisplay:10.37,2013-06-02 02:10:00,
2013-06-01 19:11:00,64.1,53.3,30.07,WSW,245,0.0,0.0,68,0.00,CLR,OVC,0.00,WeatherDisplay:10.37,2013-06-02 02:11:00,
2013-06-01 19:12:00,64.0,53.2,30.07,WSW,245,0.0,0.0,68,0.00,CLR,OVC,0.00,WeatherDisplay:10.37,2013-06-02 02:12:00,
2013-06-01 19:14:00,64.0,53.2,30.07,WSW,245,0.0,0.0,68,0.00,CLR,OVC,0.00,WeatherDisplay:10.37,2013-06-02 02:14:00,
2013-06-01 19:15:00,64.0,53.2,30.07,WSW,245,0.0,0.0,68,0.00,CLR,OVC,0.00,WeatherDisplay:10.37,2013-06-02 02:15:00,
2013-06-01 19:16:00,63.9,53.1,30.07,WSW,245,0.0,0.0,68,0.00,CLR,OVC,0.00,WeatherDisplay:10.37,2013-06-02 02:16:00,
2013-06-01 19:18:00,63.9,53.1,30.07,WSW,245,0.0,0.0,68,0.00,CLR,OVC,0.00,WeatherDisplay:10.37,2013-06-02 02:18:00,
2013-06-01 19:19:00,63.8,53.4,30.07,WSW,245,0.0,0.0,69,0.00,CLR,OVC,0.00,WeatherDisplay:10.37,2013-06-02 02:19:00,
2013-06-01 19:20:00,63.8,53.4,30.07,WSW,245,0.0,0.0,69,0.00,CLR,OVC,0.00,WeatherDisplay:10.37,2013-06-02 02:20:00,
2013-06-01 19:21:00,63.8,53.4,30.07,WSW,245,0.2,0.0,69,0.00,CLR,OVC,0.00,WeatherDisplay:10.37,2013-06-02 02:21:00,
2013-06-01 19:24:00,63.7,53.7,30.07,WSW,245,0.0,0.0,70,0.00,CLR,OVC,0.00,WeatherDisplay:10.37,2013-06-02 02:24:00,
2013-06-01 19:25:00,63.7,53.3,30.06,WSW,245,0.0,0.0,69,0.00,CLR,OVC,0.00,WeatherDisplay:10.37,2013-06-02 02:25:00,
2013-06-01 19:26:00,63.6,53.6,30.06,WSW,245,0.0,0.0,70,0.00,CLR,OVC,0.00,WeatherDisplay:10.37,2013-06-02 02:26:00,
2013-06-01 19:27:00,63.6,53.6,30.06,WSW,245,0.0,0.0,70,0.00,CLR,OVC,0.00,WeatherDisplay:10.37,2013-06-02 02:27:00,
2013-06-01 19:29:00,63.5,53.5,30.06,WSW,245,0.0,0.0,70,0.00,CLR,OVC,0.00,WeatherDisplay:10.37,2013-06-02 02:29:00,
2013-06-01 19:30:00,63.5,53.1,30.06,WSW,245,0.0,0.0,69,0.00,CLR,OVC,0.00,WeatherDisplay:10.37,2013-06-02 02:30:00,
2013-06-01 19:31:00,63.4,53.0,30.06,WSW,245,0.0,1.2,69,0.00,CLR,OVC,0.00,WeatherDisplay:10.37,2013-06-02 02:31:00,
2013-06-01 19:33:00,63.4,53.0,30.06,WSW,245,0.1,3.5,69,0.00,CLR,OVC,0.00,WeatherDisplay:10.37,2013-06-02 02:33:00,
2013-06-01 19:34:00,63.3,53.0,30.06,WSW,245,0.0,1.2,69,0.00,CLR,OVC,0.00,WeatherDisplay:10.37,2013-06-02 02:34:00,
2013-06-01 19:35:00,63.3,53.0,30.06,WSW,245,0.0,3.0,69,0.00,CLR,OVC,0.00,WeatherDisplay:10.37,2013-06-02 02:35:00,
2013-06-01 19:36:00,63.2,53.3,30.06,WSW,245,0.0,1.2,70,0.00,CLR,OVC,0.00,WeatherDisplay:10.37,2013-06-02 02:36:00,
2013-06-01 19:38:00,63.2,53.3,30.06,WSW,245,0.0,0.0,70,0.00,CLR,OVC,0.00,WeatherDisplay:10.37,2013-06-02 02:38:00,
2013-06-01 19:39:00,63.1,52.8,30.06,WSW,245,0.0,1.2,69,0.00,CLR,OVC,0.00,WeatherDisplay:10.37,2013-06-02 02:39:00,
2013-06-01 19:40:00,63.1,52.8,30.06,WSW,245,0.0,1.0,69,0.00,CLR,OVC,0.00,WeatherDisplay:10.37,2013-06-02 02:40:00,
2013-06-01 19:41:00,63.0,53.1,30.06,WSW,245,0.0,0.0,70,0.00,CLR,OVC,0.00,WeatherDisplay:10.37,2013-06-02 02:41:00,
2013-06-01 19:42:00,63.0,53.1,30.06,WSW,245,0.0,0.0,70,0.00,CLR,OVC,0.00,WeatherDisplay:10.37,2013-06-02 02:42:00,
2013-06-01 19:44:00,62.9,53.0,30.06,WSW,245,0.0,0.0,70,0.00,CLR,OVC,0.00,WeatherDisplay:10.37,2013-06-02 02:44:00,
2013-06-01 19:45:00,62.9,53.0,30.06,WSW,245,0.0,0.0,70,0.00,CLR,OVC,0.00,WeatherDisplay:10.37,2013-06-02 02:45:00,
2013-06-01 19:47:00,62.8,52.9,30.06,WSW,245,0.0,0.0,70,0.00,CLR,OVC,0.00,WeatherDisplay:10.37,2013-06-02 02:47:00,
2013-06-01 19:48:00,62.7,52.8,30.05,WSW,245,0.0,0.0,70,0.00,CLR,OVC,0.00,WeatherDisplay:10.37,2013-06-02 02:48:00,
2013-06-01 19:49:00,62.7,52.8,30.05,WSW,245,0.0,0.0,70,0.00,CLR,OVC,0.00,WeatherDisplay:10.37,2013-06-02 02:49:00,
2013-06-01 19:50:00,62.6,52.7,30.05,WSW,245,0.1,1.2,70,0.00,CLR,OVC,0.00,WeatherDisplay:10.37,2013-06-02 02:50:00,
2013-06-01 19:51:00,62.6,52.7,30.05,WSW,245,0.0,1.2,70,0.00,CLR,OVC,0.00,WeatherDisplay:10.37,2013-06-02 02:51:00,
2013-06-01 19:52:00,62.5,52.6,30.05,WSW,245,0.0,1.2,70,0.00,CLR,OVC,0.00,WeatherDisplay:10.37,2013-06-02 02:52:00,
2013-06-01 19:53:00,62.5,52.6,30.05,WSW,245,0.0,1.2,70,0.00,CLR,OVC,0.00,WeatherDisplay:10.37,2013-06-02 02:53:00,
2013-06-01 19:54:00,62.4,52.5,30.05,WSW,245,0.0,0.0,70,0.00,CLR,OVC,0.00,WeatherDisplay:10.37,2013-06-02 02:54:00,
2013-06-01 19:55:00,62.3,52.4,30.05,WSW,245,0.3,1.2,70,0.00,CLR,OVC,0.00,WeatherDisplay:10.37,2013-06-02 02:55:00,
2013-06-01 19:56:00,62.3,52.4,30.05,WSW,245,0.1,1.2,70,0.00,CLR,OVC,0.00,WeatherDisplay:10.37,2013-06-02 02:56:00,
2013-06-01 19:57:00,62.2,52.3,30.05,WSW,245,0.0,0.0,70,0.00,CLR,OVC,0.00,WeatherDisplay:10.37,2013-06-02 02:57:00,
2013-06-01 19:58:00,62.2,52.3,30.05,WSW,245,0.0,0.0,70,0.00,CLR,OVC,0.00,WeatherDisplay:10.37,2013-06-02 02:58:00,
2013-06-01 19:59:00,62.0,52.5,30.05,WSW,245,0.0,1.0,71,0.00,CLR,OVC,0.00,WeatherDisplay:10.37,2013-06-02 02:59:00,
2013-06-01 20:01:00,62.0,52.5,30.05,WSW,245,0.0,1.2,71,0.00,CLR,OVC,0.00,WeatherDisplay:10.37,2013-06-02 03:01:00,
2013-06-01 20:02:00,61.9,52.4,30.05,WSW,245,0.0,0.0,71,0.00,CLR,OVC,0.00,WeatherDisplay:10.37,2013-06-02 03:02:00,
2013-06-01 20:03:00,61.8,52.3,30.05,WSW,245,0.0,0.0,71,0.00,CLR,OVC,0.00,WeatherDisplay:10.37,2013-06-02 03:03:00,
2013-06-01 20:05:00,61.7,52.2,30.05,WSW,245,0.0,0.0,71,0.00,CLR,OVC,0.00,WeatherDisplay:10.37,2013-06-02 03:05:00,
2013-06-01 20:06:00,61.6,52.1,30.05,WSW,245,0.0,0.0,71,0.00,CLR,OVC,0.00,WeatherDisplay:10.37,2013-06-02 03:06:00,
2013-06-01 20:07:00,61.6,52.1,30.05,WSW,245,0.0,0.0,71,0.00,CLR,OVC,0.00,WeatherDisplay:10.37,2013-06-02 03:07:00,
2013-06-01 20:08:00,61.5,52.4,30.05,WSW,245,0.0,0.0,72,0.00,CLR,OVC,0.00,WeatherDisplay:10.37,2013-06-02 03:08:00,
2013-06-01 20:10:00,61.4,52.3,30.05,WSW,245,0.0,0.0,72,0.00,CLR,OVC,0.00,WeatherDisplay:10.37,2013-06-02 03:10:00,
2013-06-01 20:11:00,61.3,51.8,30.05,WSW,246,0.0,0.0,71,0.00,CLR,OVC,0.00,WeatherDisplay:10.37,2013-06-02 03:11:00,
2013-06-01 20:12:00,61.2,51.7,30.05,WSW,246,0.0,0.0,71,0.00,CLR,OVC,0.00,WeatherDisplay:10.37,2013-06-02 03:12:00,
2013-06-01 20:13:00,61.2,52.1,30.05,WSW,246,0.0,0.0,72,0.00,CLR,OVC,0.00,WeatherDisplay:10.37,2013-06-02 03:13:00,
2013-06-01 20:15:00,61.0,51.9,30.05,WSW,246,0.0,0.0,72,0.00,CLR,OVC,0.00,WeatherDisplay:10.37,2013-06-02 03:15:00,
2013-06-01 20:16:00,60.9,51.8,30.05,WSW,246,0.0,0.0,72,0.00,CLR,OVC,0.00,WeatherDisplay:10.37,2013-06-02 03:16:00,
2013-06-01 20:17:00,60.9,51.8,30.05,WSW,246,0.0,0.0,72,0.00,CLR,OVC,0.00,WeatherDisplay:10.37,2013-06-02 03:17:00,
2013-06-01 20:18:00,60.9,51.8,30.05,WSW,246,0.0,0.0,72,0.00,CLR,OVC,0.00,WeatherDisplay:10.37,2013-06-02 03:18:00,
2013-06-01 20:20:00,60.7,51.6,30.05,WSW,246,0.0,0.0,72,0.00,CLR,OVC,0.00,WeatherDisplay:10.37,2013-06-02 03:20:00,
2013-06-01 20:21:00,60.7,52.0,30.05,WSW,246,0.0,0.0,73,0.00,CLR,OVC,0.00,WeatherDisplay:10.37,2013-06-02 03:21:00,
2013-06-01 20:23:00,60.6,51.9,30.05,WSW,246,0.0,0.0,73,0.00,CLR,OVC,0.00,WeatherDisplay:10.37,2013-06-02 03:23:00,
2013-06-01 20:25:00,60.5,51.8,30.05,WSW,246,0.0,0.0,73,0.00,CLR,OVC,0.00,WeatherDisplay:10.37,2013-06-02 03:25:00,
2013-06-01 20:27:00,60.4,51.7,30.05,WSW,246,0.0,0.0,73,0.00,CLR,OVC,0.00,WeatherDisplay:10.37,2013-06-02 03:27:00,
2013-06-01 20:28:00,60.3,51.6,30.05,WSW,246,0.0,0.0,73,0.00,CLR,OVC,0.00,WeatherDisplay:10.37,2013-06-02 03:28:00,
2013-06-01 20:30:00,60.2,51.5,30.05,WSW,246,0.0,0.0,73,0.00,CLR,OVC,0.00,WeatherDisplay:10.37,2013-06-02 03:30:00,
2013-06-01 20:33:00,60.0,51.7,30.05,WSW,246,0.0,0.0,74,0.00,CLR,OVC,0.00,WeatherDisplay:10.37,2013-06-02 03:33:00,
2013-06-01 20:34:00,60.0,51.7,30.05,WSW,246,0.4,0.0,74,0.00,CLR,OVC,0.00,WeatherDisplay:10.37,2013-06-02 03:34:00,
2013-06-01 20:36:00,59.9,51.6,30.05,WSW,246,0.0,1.2,74,0.00,CLR,OVC,0.00,WeatherDisplay:10.37,2013-06-02 03:36:00,
2013-06-01 20:38:00,59.6,51.3,30.05,WSW,246,0.0,0.0,74,0.00,CLR,OVC,0.00,WeatherDisplay:10.37,2013-06-02 03:38:00,
2013-06-01 20:39:00,59.6,51.3,30.05,WSW,246,0.2,2.0,74,0.00,CLR,OVC,0.00,WeatherDisplay:10.37,2013-06-02 03:39:00,
2013-06-01 20:40:00,59.6,51.3,30.05,WSW,246,0.4,2.3,74,0.00,CLR,OVC,0.00,WeatherDisplay:10.37,2013-06-02 03:40:00,
2013-06-01 20:41:00,59.5,51.6,30.05,WSW,246,0.0,1.2,75,0.00,CLR,OVC,0.00,WeatherDisplay:10.37,2013-06-02 03:41:00,
2013-06-01 20:44:00,59.3,51.4,30.05,WSW,246,0.0,1.0,75,0.00,CLR,OVC,0.00,WeatherDisplay:10.37,2013-06-02 03:44:00,
2013-06-01 20:45:00,59.2,51.3,30.05,WSW,246,0.1,1.2,75,0.00,CLR,OVC,0.00,WeatherDisplay:10.37,2013-06-02 03:45:00,
2013-06-01 20:46:00,59.1,51.2,30.05,WSW,246,0.0,0.0,75,0.00,CLR,OVC,0.00,WeatherDisplay:10.37,2013-06-02 03:46:00,
2013-06-01 20:49:00,58.9,51.0,30.06,WSW,246,0.0,0.0,75,0.00,CLR,OVC,0.00,WeatherDisplay:10.37,2013-06-02 03:49:00,
2013-06-01 20:50:00,58.8,50.9,30.06,WSW,246,0.0,0.0,75,0.00,CLR,OVC,0.00,WeatherDisplay:10.37,2013-06-02 03:50:00,
2013-06-01 20:51:00,58.7,51.2,30.06,WSW,246,0.0,0.0,76,0.00,CLR,OVC,0.00,WeatherDisplay:10.37,2013-06-02 03:51:00,
2013-06-01 20:54:00,58.5,50.6,30.06,WSW,246,0.0,0.0,75,0.00,CLR,OVC,0.00,WeatherDisplay:10.37,2013-06-02 03:54:00,
2013-06-01 20:55:00,58.5,50.6,30.06,WSW,246,0.0,0.0,75,0.00,CLR,OVC,0.00,WeatherDisplay:10.37,2013-06-02 03:55:00,
2013-06-01 20:56:00,58.3,50.4,30.06,WSW,245,0.0,0.0,75,0.00,CLR,OVC,0.00,WeatherDisplay:10.37,2013-06-02 03:56:00,
2013-06-01 20:59:00,58.1,50.6,30.06,WSW,246,0.0,0.0,76,0.00,CLR,OVC,0.00,WeatherDisplay:10.37,2013-06-02 03:59:00,
2013-06-01 21:00:00,58.1,50.6,30.06,WSW,246,0.0,0.0,76,0.00,CLR,OVC,0.00,WeatherDisplay:10.37,2013-06-02 04:00:00,
2013-06-01 21:01:00,58.0,50.8,30.06,WSW,246,0.0,1.2,77,0.00,CLR,OVC,0.00,WeatherDisplay:10.37,2013-06-02 04:01:00,
2013-06-01 21:06:00,57.7,50.9,30.06,NW,326,0.0,0.0,78,0.00,CLR,OVC,0.00,WeatherDisplay:10.37,2013-06-02 04:06:00,
2013-06-01 21:07:00,57.6,50.8,30.06,NW,326,0.3,1.2,78,0.00,CLR,OVC,0.00,WeatherDisplay:10.37,2013-06-02 04:07:00,
2013-06-01 21:11:00,57.4,50.6,30.06,NNW,329,0.3,0.0,78,0.00,CLR,OVC,0.00,WeatherDisplay:10.37,2013-06-02 04:11:00,
2013-06-01 21:12:00,57.3,50.5,30.06,NNW,329,0.0,0.0,78,0.00,CLR,OVC,0.00,WeatherDisplay:10.37,2013-06-02 04:12:00,
2013-06-01 21:16:00,57.2,50.7,30.06,NNW,337,0.0,1.2,79,0.00,CLR,OVC,0.00,WeatherDisplay:10.37,2013-06-02 04:16:00,
2013-06-01 21:17:00,57.2,50.7,30.06,NNW,337,0.0,0.0,79,0.00,CLR,OVC,0.00,WeatherDisplay:10.37,2013-06-02 04:17:00,
2013-06-01 21:18:00,57.2,50.7,30.06,NNW,337,0.0,0.0,79,0.00,CLR,OVC,0.00,WeatherDisplay:10.37,2013-06-02 04:18:00,
2013-06-01 21:21:00,57.1,50.6,30.06,NNW,337,0.0,0.0,79,0.00,CLR,OVC,0.00,WeatherDisplay:10.37,2013-06-02 04:21:00,
2013-06-01 21:22:00,57.1,50.6,30.06,NNW,337,0.0,0.0,79,0.00,CLR,OVC,0.00,WeatherDisplay:10.37,2013-06-02 04:22:00,
2013-06-01 21:23:00,57.1,50.6,30.06,NNW,337,0.0,0.0,79,0.00,CLR,OVC,0.00,WeatherDisplay:10.37,2013-06-02 04:23:00,
2013-06-01 21:26:00,57.1,50.6,30.06,NNW,337,0.0,0.0,79,0.00,CLR,OVC,0.00,WeatherDisplay:10.37,2013-06-02 04:26:00,
2013-06-01 21:27:00,57.1,50.6,30.06,NNW,337,0.0,1.0,79,0.00,CLR,OVC,0.00,WeatherDisplay:10.37,2013-06-02 04:27:00,
2013-06-01 21:28:00,57.0,50.5,30.06,NNW,337,0.0,1.2,79,0.00,CLR,OVC,0.00,WeatherDisplay:10.37,2013-06-02 04:28:00,
2013-06-01 21:31:00,57.0,50.5,30.07,NNW,333,0.0,1.2,79,0.00,CLR,OVC,0.00,WeatherDisplay:10.37,2013-06-02 04:31:00,
2013-06-01 21:32:00,57.0,50.5,30.07,NNW,333,0.0,0.0,79,0.00,CLR,OVC,0.00,WeatherDisplay:10.37,2013-06-02 04:32:00,
2013-06-01 21:33:00,56.9,50.5,30.07,NNW,333,0.0,0.0,79,0.00,CLR,OVC,0.00,WeatherDisplay:10.37,2013-06-02 04:33:00,
2013-06-01 21:37:00,56.9,50.8,30.07,NNW,333,0.0,0.0,80,0.00,CLR,OVC,0.00,WeatherDisplay:10.37,2013-06-02 04:37:00,
2013-06-01 21:38:00,56.8,50.7,30.07,NNW,333,0.0,0.0,80,0.00,CLR,OVC,0.00,WeatherDisplay:10.37,2013-06-02 04:38:00,
2013-06-01 21:39:00,56.8,50.7,30.07,NNW,333,0.0,0.0,80,0.00,CLR,OVC,0.00,WeatherDisplay:10.37,2013-06-02 04:39:00,
2013-06-01 21:42:00,56.7,50.3,30.07,NW,306,0.0,0.0,79,0.00,CLR,OVC,0.00,WeatherDisplay:10.37,2013-06-02 04:42:00,
2013-06-01 21:43:00,56.6,50.2,30.07,NW,306,0.0,0.0,79,0.00,CLR,OVC,0.00,WeatherDisplay:10.37,2013-06-02 04:43:00,
2013-06-01 21:44:00,56.6,50.2,30.07,NW,306,0.0,0.0,79,0.00,CLR,OVC,0.00,WeatherDisplay:10.37,2013-06-02 04:44:00,
2013-06-01 21:45:00,56.6,50.2,30.07,NW,306,0.0,0.0,79,0.00,CLR,OVC,0.00,WeatherDisplay:10.37,2013-06-02 04:45:00,
2013-06-01 21:47:00,56.5,50.4,30.07,NW,306,0.0,0.0,80,0.00,CLR,OVC,0.00,WeatherDisplay:10.37,2013-06-02 04:47:00,
2013-06-01 21:48:00,56.4,50.3,30.07,NW,306,0.0,0.0,80,0.00,CLR,OVC,0.00,WeatherDisplay:10.37,2013-06-02 04:48:00,
2013-06-01 21:49:00,56.3,50.2,30.07,NW,306,0.0,0.0,80,0.00,CLR,OVC,0.00,WeatherDisplay:10.37,2013-06-02 04:49:00,
2013-06-01 21:50:00,56.3,50.2,30.07,NW,306,0.0,0.0,80,0.00,CLR,OVC,0.00,WeatherDisplay:10.37,2013-06-02 04:50:00,
2013-06-01 21:52:00,56.2,50.1,30.07,NW,306,0.0,0.0,80,0.00,CLR,OVC,0.00,WeatherDisplay:10.37,2013-06-02 04:52:00,
2013-06-01 21:53:00,56.2,50.1,30.07,NW,306,0.0,0.0,80,0.00,CLR,OVC,0.00,WeatherDisplay:10.37,2013-06-02 04:53:00,
2013-06-01 21:55:00,56.1,50.0,30.07,NW,306,0.0,0.0,80,0.00,CLR,OVC,0.00,WeatherDisplay:10.37,2013-06-02 04:55:00,
2013-06-01 21:57:00,56.0,50.3,30.07,NW,306,0.0,0.0,81,0.00,CLR,OVC,0.00,WeatherDisplay:10.37,2013-06-02 04:57:00,
2013-06-01 21:58:00,55.9,50.2,30.07,NW,306,0.0,0.0,81,0.00,CLR,OVC,0.00,WeatherDisplay:10.37,2013-06-02 04:58:00,
2013-06-01 22:00:00,55.8,50.1,30.07,NW,306,0.0,0.0,81,0.00,CLR,OVC,0.00,WeatherDisplay:10.37,2013-06-02 05:00:00,
2013-06-01 22:02:00,55.7,50.0,30.07,NW,318,0.0,0.0,81,0.00,CLR,OVC,0.00,WeatherDisplay:10.37,2013-06-02 05:02:00,
2013-06-01 22:03:00,55.7,50.0,30.07,NW,318,0.0,0.0,81,0.00,CLR,OVC,0.00,WeatherDisplay:10.37,2013-06-02 05:03:00,
2013-06-01 22:05:00,55.6,49.9,30.07,NW,318,0.0,1.2,81,0.00,CLR,OVC,0.00,WeatherDisplay:10.37,2013-06-02 05:05:00,
2013-06-01 22:07:00,55.5,49.8,30.07,NW,318,0.0,0.0,81,0.00,CLR,OVC,0.00,WeatherDisplay:10.37,2013-06-02 05:07:00,
2013-06-01 22:08:00,55.5,49.8,30.07,NW,318,0.0,0.0,81,0.00,CLR,OVC,0.00,WeatherDisplay:10.37,2013-06-02 05:08:00,
2013-06-01 22:09:00,55.5,50.1,30.07,NW,318,0.0,0.0,82,0.00,CLR,OVC,0.00,WeatherDisplay:10.37,2013-06-02 05:09:00,
2013-06-01 22:10:00,55.4,50.0,30.07,NW,318,0.0,0.0,82,0.00,CLR,OVC,0.00,WeatherDisplay:10.37,2013-06-02 05:10:00,
2013-06-01 22:11:00,55.3,49.9,30.08,NW,318,0.0,0.0,82,0.00,CLR,OVC,0.00,WeatherDisplay:10.37,2013-06-02 05:11:00,
2013-06-01 22:13:00,55.3,49.9,30.08,NW,318,0.0,0.0,82,0.00,CLR,OVC,0.00,WeatherDisplay:10.37,2013-06-02 05:13:00,
2013-06-01 22:14:00,55.3,49.9,30.07,NW,318,0.0,0.0,82,0.00,CLR,OVC,0.00,WeatherDisplay:10.37,2013-06-02 05:14:00,
2013-06-01 22:15:00,55.2,49.8,30.08,NW,318,0.0,0.0,82,0.00,CLR,OVC,0.00,WeatherDisplay:10.37,2013-06-02 05:15:00,
2013-06-01 22:16:00,55.1,49.7,30.08,NW,318,0.0,0.0,82,0.00,CLR,OVC,0.00,WeatherDisplay:10.37,2013-06-02 05:16:00,
2013-06-01 22:18:00,55.1,49.7,30.08,NW,318,0.0,0.0,82,0.00,CLR,OVC,0.00,WeatherDisplay:10.37,2013-06-02 05:18:00,
2013-06-01 22:19:00,55.1,49.7,30.08,NW,318,0.0,0.0,82,0.00,CLR,OVC,0.00,WeatherDisplay:10.37,2013-06-02 05:19:00,
2013-06-01 22:20:00,55.1,49.7,30.08,NW,318,0.1,2.0,82,0.00,CLR,OVC,0.00,WeatherDisplay:10.37,2013-06-02 05:20:00,
2013-06-01 22:22:00,55.1,50.0,30.08,NW,318,0.1,2.3,83,0.00,CLR,OVC,0.00,WeatherDisplay:10.37,2013-06-02 05:22:00,
2013-06-01 22:23:00,55.0,49.9,30.08,NW,318,0.0,0.0,83,0.00,CLR,OVC,0.00,WeatherDisplay:10.37,2013-06-02 05:23:00,
2013-06-01 22:24:00,55.0,49.9,30.08,NW,318,0.0,0.0,83,0.00,CLR,OVC,0.00,WeatherDisplay:10.37,2013-06-02 05:24:00,
2013-06-01 22:25:00,55.0,49.9,30.08,NW,318,0.0,0.0,83,0.00,CLR,OVC,0.00,WeatherDisplay:10.37,2013-06-02 05:25:00,
2013-06-01 22:27:00,55.0,49.9,30.07,NW,318,0.0,0.0,83,0.00,CLR,OVC,0.00,WeatherDisplay:10.37,2013-06-02 05:27:00,
2013-06-01 22:29:00,54.9,49.8,30.07,NW,318,0.0,0.0,83,0.00,CLR,OVC,0.00,WeatherDisplay:10.37,2013-06-02 05:29:00,
2013-06-01 22:30:00,54.9,49.8,30.07,NW,318,0.0,0.0,83,0.00,CLR,OVC,0.00,WeatherDisplay:10.37,2013-06-02 05:30:00,
2013-06-01 22:31:00,54.9,49.8,30.07,NW,318,0.0,0.0,83,0.00,CLR,OVC,0.00,WeatherDisplay:10.37,2013-06-02 05:31:00,
2013-06-01 22:32:00,54.9,49.8,30.07,NW,318,0.0,0.0,83,0.00,CLR,OVC,0.00,WeatherDisplay:10.37,2013-06-02 05:32:00,
2013-06-01 22:34:00,54.8,49.7,30.07,NW,318,0.0,0.0,83,0.00,CLR,OVC,0.00,WeatherDisplay:10.37,2013-06-02 05:34:00,
2013-06-01 22:35:00,54.8,49.7,30.07,NW,318,0.0,0.0,83,0.00,CLR,OVC,0.00,WeatherDisplay:10.37,2013-06-02 05:35:00,
2013-06-01 22:36:00,54.8,49.7,30.07,NW,318,0.0,0.0,83,0.00,CLR,OVC,0.00,WeatherDisplay:10.37,2013-06-02 05:36:00,
2013-06-01 22:37:00,54.7,49.6,30.07,NW,318,0.0,0.0,83,0.00,CLR,OVC,0.00,WeatherDisplay:10.37,2013-06-02 05:37:00,
2013-06-01 22:39:00,54.7,49.6,30.08,NW,318,0.0,0.0,83,0.00,CLR,OVC,0.00,WeatherDisplay:10.37,2013-06-02 05:39:00,
2013-06-01 22:40:00,54.7,49.6,30.08,NW,318,0.0,0.0,83,0.00,CLR,OVC,0.00,WeatherDisplay:10.37,2013-06-02 05:40:00,
2013-06-01 22:41:00,54.6,49.5,30.07,NW,318,0.0,0.0,83,0.00,CLR,OVC,0.00,WeatherDisplay:10.37,2013-06-02 05:41:00,
2013-06-01 22:42:00,54.6,49.5,30.07,NW,318,0.0,0.0,83,0.00,CLR,OVC,0.00,WeatherDisplay:10.37,2013-06-02 05:42:00,
2013-06-01 22:45:00,54.6,49.9,30.08,NW,318,0.0,0.0,84,0.00,CLR,OVC,0.00,WeatherDisplay:10.37,2013-06-02 05:45:00,
2013-06-01 22:46:00,54.6,49.9,30.08,NW,318,0.0,0.0,84,0.00,CLR,OVC,0.00,WeatherDisplay:10.37,2013-06-02 05:46:00,
2013-06-01 22:47:00,54.5,49.8,30.08,NW,318,0.0,0.0,84,0.00,CLR,OVC,0.00,WeatherDisplay:10.37,2013-06-02 05:47:00,
2013-06-01 22:50:00,54.4,49.7,30.08,NW,318,0.0,0.0,84,0.00,CLR,OVC,0.00,WeatherDisplay:10.37,2013-06-02 05:50:00,
2013-06-01 22:51:00,54.4,49.7,30.08,NW,318,0.0,0.0,84,0.00,CLR,OVC,0.00,WeatherDisplay:10.37,2013-06-02 05:51:00,
2013-06-01 22:52:00,54.4,49.7,30.08,NW,318,0.0,0.0,84,0.00,CLR,OVC,0.00,WeatherDisplay:10.37,2013-06-02 05:52:00,
2013-06-01 22:55:00,54.3,49.6,30.08,NW,318,0.0,0.0,84,0.00,CLR,OVC,0.00,WeatherDisplay:10.37,2013-06-02 05:55:00,
2013-06-01 22:56:00,54.3,49.6,30.08,NW,318,0.0,0.0,84,0.00,CLR,OVC,0.00,WeatherDisplay:10.37,2013-06-02 05:56:00,
2013-06-01 22:57:00,54.2,49.5,30.08,NW,318,0.0,0.0,84,0.00,CLR,OVC,0.00,WeatherDisplay:10.37,2013-06-02 05:57:00,
2013-06-01 23:00:00,54.1,49.4,30.08,NW,318,0.0,0.0,84,0.00,CLR,OVC,0.00,WeatherDisplay:10.37,2013-06-02 06:00:00,
2013-06-01 23:01:00,54.0,49.3,30.08,NW,318,0.0,0.0,84,0.00,CLR,OVC,0.00,WeatherDisplay:10.37,2013-06-02 06:01:00,
2013-06-01 23:02:00,54.1,49.7,30.08,NW,318,0.0,0.0,85,0.00,CLR,OVC,0.00,WeatherDisplay:10.37,2013-06-02 06:02:00,
2013-06-01 23:03:00,54.0,49.6,30.08,NW,318,0.0,0.0,85,0.00,CLR,OVC,0.00,WeatherDisplay:10.37,2013-06-02 06:03:00,
2013-06-01 23:05:00,53.9,49.5,30.08,NW,318,0.0,0.0,85,0.00,CLR,OVC,0.00,WeatherDisplay:10.37,2013-06-02 06:05:00,
2013-06-01 23:06:00,53.9,49.5,30.08,NW,318,0.0,0.0,85,0.00,CLR,OVC,0.00,WeatherDisplay:10.37,2013-06-02 06:06:00,
2013-06-01 23:07:00,53.8,49.4,30.08,NW,318,0.0,0.0,85,0.00,CLR,OVC,0.00,WeatherDisplay:10.37,2013-06-02 06:07:00,
2013-06-01 23:08:00,53.8,49.4,30.08,NW,318,0.0,0.0,85,0.00,CLR,OVC,0.00,WeatherDisplay:10.37,2013-06-02 06:08:00,
2013-06-01 23:11:00,53.7,49.3,30.08,NW,318,0.0,0.0,85,0.00,CLR,OVC,0.00,WeatherDisplay:10.37,2013-06-02 06:11:00,
2013-06-01 23:12:00,53.7,49.3,30.07,NW,318,0.0,0.0,85,0.00,CLR,OVC,0.00,WeatherDisplay:10.37,2013-06-02 06:12:00,
2013-06-01 23:13:00,53.7,49.3,30.08,NW,318,0.0,0.0,85,0.00,CLR,OVC,0.00,WeatherDisplay:10.37,2013-06-02 06:13:00,
2013-06-01 23:16:00,53.6,49.2,30.07,NW,318,0.0,0.0,85,0.00,CLR,OVC,0.00,WeatherDisplay:10.37,2013-06-02 06:16:00,
2013-06-01 23:17:00,53.6,49.5,30.08,NW,318,0.0,0.0,86,0.00,CLR,OVC,0.00,WeatherDisplay:10.37,2013-06-02 06:17:00,
2013-06-01 23:18:00,53.6,49.5,30.08,NW,318,0.0,0.0,86,0.00,CLR,OVC,0.00,WeatherDisplay:10.37,2013-06-02 06:18:00,
2013-06-01 23:21:00,53.5,49.4,30.08,NW,318,0.0,0.0,86,0.00,CLR,OVC,0.00,WeatherDisplay:10.37,2013-06-02 06:21:00,
2013-06-01 23:22:00,53.5,49.4,30.08,NW,318,0.0,0.0,86,0.00,CLR,OVC,0.00,WeatherDisplay:10.37,2013-06-02 06:22:00,
2013-06-01 23:23:00,53.5,49.4,30.08,NW,318,0.0,0.0,86,0.00,CLR,OVC,0.00,WeatherDisplay:10.37,2013-06-02 06:23:00,
2013-06-01 23:26:00,53.4,49.3,30.08,NW,318,0.0,0.0,86,0.00,CLR,OVC,0.00,WeatherDisplay:10.37,2013-06-02 06:26:00,
2013-06-01 23:27:00,53.5,49.4,30.08,NW,318,0.0,0.0,86,0.00,CLR,OVC,0.00,WeatherDisplay:10.37,2013-06-02 06:27:00,
2013-06-01 23:28:00,53.5,49.4,30.08,NW,318,0.0,0.0,86,0.00,CLR,OVC,0.00,WeatherDisplay:10.37,2013-06-02 06:28:00,
2013-06-01 23:31:00,53.4,49.3,30.08,NW,318,0.0,0.0,86,0.00,CLR,OVC,0.00,WeatherDisplay:10.37,2013-06-02 06:31:00,
2013-06-01 23:32:00,53.4,49.3,30.08,NW,318,0.0,0.0,86,0.00,CLR,OVC,0.00,WeatherDisplay:10.37,2013-06-02 06:32:00,
2013-06-01 23:33:00,53.4,49.3,30.08,NW,318,0.0,0.0,86,0.00,CLR,OVC,0.00,WeatherDisplay:10.37,2013-06-02 06:33:00,
2013-06-01 23:37:00,53.3,49.2,30.08,NW,318,0.0,1.2,86,0.00,CLR,OVC,0.00,WeatherDisplay:10.37,2013-06-02 06:37:00,
2013-06-01 23:38:00,53.3,49.5,30.08,NW,318,0.2,1.2,87,0.00,CLR,OVC,0.00,WeatherDisplay:10.37,2013-06-02 06:38:00,
2013-06-01 23:39:00,53.3,49.5,30.08,NW,318,0.4,1.2,87,0.00,CLR,OVC,0.00,WeatherDisplay:10.37,2013-06-02 06:39:00,
2013-06-01 23:42:00,53.3,49.5,30.08,NW,318,0.0,0.0,87,0.00,CLR,OVC,0.00,WeatherDisplay:10.37,2013-06-02 06:42:00,
2013-06-01 23:43:00,53.3,49.5,30.08,NW,318,0.0,0.0,87,0.00,CLR,OVC,0.00,WeatherDisplay:10.37,2013-06-02 06:43:00,
2013-06-01 23:44:00,53.3,49.5,30.08,NW,318,0.0,0.0,87,0.00,CLR,OVC,0.00,WeatherDisplay:10.37,2013-06-02 06:44:00,
2013-06-01 23:47:00,53.3,49.5,30.08,NW,318,0.0,0.0,87,0.00,CLR,OVC,0.00,WeatherDisplay:10.37,2013-06-02 06:47:00,
2013-06-01 23:48:00,53.3,49.5,30.08,NW,318,0.0,1.2,87,0.00,CLR,OVC,0.00,WeatherDisplay:10.37,2013-06-02 06:48:00,
2013-06-01 23:49:00,53.3,49.5,30.08,NW,318,0.0,1.2,87,0.00,CLR,OVC,0.00,WeatherDisplay:10.37,2013-06-02 06:49:00,
2013-06-01 23:50:00,53.3,49.5,30.08,NW,318,0.1,0.0,87,0.00,CLR,OVC,0.00,WeatherDisplay:10.37,2013-06-02 06:50:00,
2013-06-01 23:52:00,53.3,49.5,30.08,NW,318,0.0,0.0,87,0.00,CLR,OVC,0.00,WeatherDisplay:10.37,2013-06-02 06:52:00,
2013-06-01 23:53:00,53.3,49.5,30.08,NW,318,0.0,1.2,87,0.00,CLR,OVC,0.00,WeatherDisplay:10.37,2013-06-02 06:53:00,
2013-06-01 23:54:00,53.3,49.5,30.08,NW,318,0.0,0.0,87,0.00,CLR,OVC,0.00,WeatherDisplay:10.37,2013-06-02 06:54:00,
2013-06-01 23:55:00,53.3,49.5,30.08,NW,318,0.0,0.0,87,0.00,CLR,OVC,0.00,WeatherDisplay:10.37,2013-06-02 06:55:00,
2013-06-01 23:57:00,53.3,49.5,30.08,NW,318,0.0,0.0,87,0.00,CLR,OVC,0.00,WeatherDisplay:10.37,2013-06-02 06:57:00,
2013-06-01 23:59:00,53.3,49.5,30.08,NW,318,0.0,0.0,87,0.00,CLR,OVC,0.00,WeatherDisplay:10.37,2013-06-02 06:59:00,